Time,TemperatureF,DewpointF,PressureIn,WindDirection,WindDirectionDegrees,WindSpeedMPH,WindSpeedGustMPH,Humidity,HourlyPrecipIn,Conditions,Clouds,dailyrainin,SoftwareType,DateUTC
2013-01-02 00:01:00,5.9,-13.2,17.72,ESE,113,3.6,3.6,40,0.00,,---,0.00,VWS V14.00,2013-01-02 07:01:00,
2013-01-02 00:02:00,5.9,-13.2,17.72,ENE,77,4.0,4.0,40,0.00,,---,0.00,VWS V14.00,2013-01-02 07:02:00,
2013-01-02 00:03:00,5.9,-13.2,17.72,ESE,121,2.2,3.6,40,0.00,,---,0.00,VWS V14.00,2013-01-02 07:03:00,
2013-01-02 00:06:00,5.9,-13.2,17.72,SE,131,2.2,3.1,40,0.00,,---,0.00,VWS V14.00,2013-01-02 07:06:00,
2013-01-02 00:07:00,5.9,-13.2,17.72,ESE,117,3.1,4.0,40,0.00,,---,0.00,VWS V14.00,2013-01-02 07:07:00,
2013-01-02 00:08:00,6.1,-13.1,17.72,ESE,110,3.1,3.1,40,0.00,,---,0.00,VWS V14.00,2013-01-02 07:08:00,
2013-01-02 00:11:00,6.1,-13.1,17.72,ESE,105,0.0,0.0,40,0.00,,---,0.00,VWS V14.00,2013-01-02 07:11:00,
2013-01-02 00:12:00,6.1,-13.1,17.72,ESE,115,0.0,0.0,40,0.00,,---,0.00,VWS V14.00,2013-01-02 07:12:00,
2013-01-02 00:14:00,6.1,-13.1,17.72,ESE,115,0.0,0.0,40,0.00,,---,0.00,VWS V14.00,2013-01-02 07:14:00,
2013-01-02 00:16:00,6.1,-13.1,17.72,ESE,117,0.0,0.0,40,0.00,,---,0.00,VWS V14.00,2013-01-02 07:16:00,
2013-01-02 00:17:00,6.1,-13.1,17.72,ESE,113,0.0,0.0,40,0.00,,---,0.00,VWS V14.00,2013-01-02 07:17:00,
2013-01-02 00:19:00,6.1,-13.1,17.72,ESE,117,0.0,0.0,40,0.00,,---,0.00,VWS V14.00,2013-01-02 07:19:00,
2013-01-02 00:21:00,6.1,-13.1,17.72,ESE,103,0.0,2.2,40,0.00,,---,0.00,VWS V14.00,2013-01-02 07:21:00,
2013-01-02 00:22:00,6.1,-13.1,17.72,ESE,105,0.0,0.0,40,0.00,,---,0.00,VWS V14.00,2013-01-02 07:22:00,
2013-01-02 00:24:00,6.1,-13.1,17.72,ESE,105,0.0,0.0,40,0.00,,---,0.00,VWS V14.00,2013-01-02 07:24:00,
2013-01-02 00:26:00,6.1,-13.1,17.72,East,86,2.2,3.6,40,0.00,,---,0.00,VWS V14.00,2013-01-02 07:26:00,
2013-01-02 00:27:00,6.1,-13.1,17.72,East,86,0.0,0.0,40,0.00,,---,0.00,VWS V14.00,2013-01-02 07:27:00,
2013-01-02 00:29:00,6.1,-13.1,17.72,East,89,0.0,0.0,40,0.00,,---,0.00,VWS V14.00,2013-01-02 07:29:00,
2013-01-02 00:31:00,6.1,-13.1,17.72,ESE,105,4.0,4.0,40,0.00,,---,0.00,VWS V14.00,2013-01-02 07:31:00,
2013-01-02 00:32:00,6.1,-13.1,17.72,ESE,117,0.0,4.0,40,0.00,,---,0.00,VWS V14.00,2013-01-02 07:32:00,
2013-01-02 00:33:00,6.1,-13.1,17.72,ESE,117,0.0,0.0,40,0.00,,---,0.00,VWS V14.00,2013-01-02 07:33:00,
2013-01-02 00:34:00,6.1,-13.1,17.72,ESE,114,0.0,0.0,40,0.00,,---,0.00,VWS V14.00,2013-01-02 07:34:00,
2013-01-02 00:36:00,6.1,-13.1,17.72,East,98,4.0,4.0,40,0.00,,---,0.00,VWS V14.00,2013-01-02 07:36:00,
2013-01-02 00:38:00,6.3,-12.9,17.72,East,98,0.0,0.0,40,0.00,,---,0.00,VWS V14.00,2013-01-02 07:38:00,
2013-01-02 00:39:00,6.3,-12.9,17.72,East,98,0.0,0.0,40,0.00,,---,0.00,VWS V14.00,2013-01-02 07:39:00,
2013-01-02 00:41:00,6.3,-12.9,17.72,East,98,0.0,0.0,40,0.00,,---,0.00,VWS V14.00,2013-01-02 07:41:00,
2013-01-02 00:43:00,6.3,-12.9,17.72,East,93,0.0,0.0,40,0.00,,---,0.00,VWS V14.00,2013-01-02 07:43:00,
2013-01-02 00:44:00,6.3,-12.9,17.72,East,98,0.0,0.0,40,0.00,,---,0.00,VWS V14.00,2013-01-02 07:44:00,
2013-01-02 00:47:00,6.3,-12.9,17.72,East,100,0.0,0.0,40,0.00,,---,0.00,VWS V14.00,2013-01-02 07:47:00,
2013-01-02 00:48:00,6.3,-12.9,17.72,East,99,0.0,0.0,40,0.00,,---,0.00,VWS V14.00,2013-01-02 07:48:00,
2013-01-02 00:49:00,6.3,-12.9,17.72,East,95,0.0,0.0,40,0.00,,---,0.00,VWS V14.00,2013-01-02 07:49:00,
2013-01-02 00:52:00,6.3,-12.9,17.72,East,96,0.0,0.0,40,0.00,,---,0.00,VWS V14.00,2013-01-02 07:52:00,
2013-01-02 00:53:00,6.3,-12.9,17.72,East,92,0.0,0.0,40,0.00,,---,0.00,VWS V14.00,2013-01-02 07:53:00,
2013-01-02 00:56:00,6.1,-13.1,17.72,ESE,107,3.1,3.1,40,0.00,,---,0.00,VWS V14.00,2013-01-02 07:56:00,
2013-01-02 00:57:00,6.1,-13.1,17.72,ESE,108,0.0,0.0,40,0.00,,---,0.00,VWS V14.00,2013-01-02 07:57:00,
2013-01-02 00:58:00,6.1,-13.1,17.72,ESE,108,0.0,0.0,40,0.00,,---,0.00,VWS V14.00,2013-01-02 07:58:00,
2013-01-02 01:01:00,6.1,-13.1,17.72,ESE,108,0.0,0.0,40,0.00,,---,0.00,VWS V14.00,2013-01-02 08:01:00,
2013-01-02 01:02:00,6.1,-13.1,17.72,ESE,108,0.0,0.0,40,0.00,,---,0.00,VWS V14.00,2013-01-02 08:02:00,
2013-01-02 01:03:00,6.1,-13.1,17.72,ESE,102,2.7,2.7,40,0.00,,---,0.00,VWS V14.00,2013-01-02 08:03:00,
2013-01-02 01:06:00,6.1,-13.1,17.72,East,100,0.0,0.0,40,0.00,,---,0.00,VWS V14.00,2013-01-02 08:06:00,
2013-01-02 01:07:00,6.1,-13.1,17.72,East,100,0.0,0.0,40,0.00,,---,0.00,VWS V14.00,2013-01-02 08:07:00,
2013-01-02 01:08:00,6.1,-13.1,17.72,East,101,0.0,0.0,40,0.00,,---,0.00,VWS V14.00,2013-01-02 08:08:00,
2013-01-02 01:11:00,6.1,-13.1,17.72,East,101,0.0,0.0,40,0.00,,---,0.00,VWS V14.00,2013-01-02 08:11:00,
2013-01-02 01:12:00,6.1,-13.1,17.72,East,101,0.0,0.0,40,0.00,,---,0.00,VWS V14.00,2013-01-02 08:12:00,
2013-01-02 01:13:00,6.1,-13.1,17.72,East,101,0.0,0.0,40,0.00,,---,0.00,VWS V14.00,2013-01-02 08:13:00,
2013-01-02 01:16:00,5.9,-13.2,17.72,NW,313,2.2,3.6,40,0.00,,---,0.00,VWS V14.00,2013-01-02 08:16:00,
2013-01-02 01:17:00,5.9,-13.2,17.72,NW,306,0.0,2.7,40,0.00,,---,0.00,VWS V14.00,2013-01-02 08:17:00,
2013-01-02 01:18:00,5.9,-13.2,17.72,NW,314,0.0,0.0,40,0.00,,---,0.00,VWS V14.00,2013-01-02 08:18:00,
2013-01-02 01:21:00,5.9,-13.2,17.72,NW,318,0.0,0.0,40,0.00,,---,0.00,VWS V14.00,2013-01-02 08:21:00,
2013-01-02 01:22:00,5.9,-13.2,17.72,NW,318,0.0,0.0,40,0.00,,---,0.00,VWS V14.00,2013-01-02 08:22:00,
2013-01-02 01:23:00,5.9,-13.2,17.72,NW,317,0.0,0.0,40,0.00,,---,0.00,VWS V14.00,2013-01-02 08:23:00,
2013-01-02 01:24:00,5.9,-13.2,17.72,NW,317,0.0,0.0,40,0.00,,---,0.00,VWS V14.00,2013-01-02 08:24:00,
2013-01-02 01:27:00,5.9,-13.2,17.72,NW,311,0.0,0.0,40,0.00,,---,0.00,VWS V14.00,2013-01-02 08:27:00,
2013-01-02 01:28:00,5.9,-13.2,17.72,NW,308,2.2,2.2,40,0.00,,---,0.00,VWS V14.00,2013-01-02 08:28:00,
2013-01-02 01:29:00,5.9,-13.2,17.72,NW,310,0.0,0.0,40,0.00,,---,0.00,VWS V14.00,2013-01-02 08:29:00,
2013-01-02 01:32:00,5.7,-13.4,17.72,NW,308,0.0,0.0,40,0.00,,---,0.00,VWS V14.00,2013-01-02 08:32:00,
2013-01-02 01:33:00,5.7,-13.4,17.72,NW,308,0.0,0.0,40,0.00,,---,0.00,VWS V14.00,2013-01-02 08:33:00,
2013-01-02 01:34:00,5.7,-13.4,17.72,NW,308,0.0,0.0,40,0.00,,---,0.00,VWS V14.00,2013-01-02 08:34:00,
2013-01-02 01:37:00,5.7,-13.4,17.72,NW,308,0.0,0.0,40,0.00,,---,0.00,VWS V14.00,2013-01-02 08:37:00,
2013-01-02 01:38:00,5.7,-13.4,17.72,NW,308,0.0,0.0,40,0.00,,---,0.00,VWS V14.00,2013-01-02 08:38:00,
2013-01-02 01:39:00,5.7,-13.4,17.72,NW,306,0.0,0.0,40,0.00,,---,0.00,VWS V14.00,2013-01-02 08:39:00,
2013-01-02 01:42:00,5.7,-13.4,17.72,NW,308,0.0,0.0,40,0.00,,---,0.00,VWS V14.00,2013-01-02 08:42:00,
2013-01-02 01:43:00,5.7,-13.4,17.72,NW,308,0.0,0.0,40,0.00,,---,0.00,VWS V14.00,2013-01-02 08:43:00,
2013-01-02 01:44:00,5.7,-13.4,17.72,WNW,300,0.0,0.0,40,0.00,,---,0.00,VWS V14.00,2013-01-02 08:44:00,
2013-01-02 01:47:00,5.5,-13.5,17.72,WSW,240,0.0,0.0,40,0.00,,---,0.00,VWS V14.00,2013-01-02 08:47:00,
2013-01-02 01:48:00,5.5,-13.5,17.72,WSW,240,0.0,0.0,40,0.00,,---,0.00,VWS V14.00,2013-01-02 08:48:00,
2013-01-02 01:49:00,5.5,-13.5,17.72,WSW,238,0.0,0.0,40,0.00,,---,0.00,VWS V14.00,2013-01-02 08:49:00,
2013-01-02 01:52:00,5.5,-13.5,17.72,WSW,240,0.0,0.0,40,0.00,,---,0.00,VWS V14.00,2013-01-02 08:52:00,
2013-01-02 01:53:00,5.5,-13.5,17.72,WSW,240,0.0,0.0,40,0.00,,---,0.00,VWS V14.00,2013-01-02 08:53:00,
2013-01-02 01:54:00,5.5,-13.5,17.72,WSW,240,0.0,0.0,40,0.00,,---,0.00,VWS V14.00,2013-01-02 08:54:00,
2013-01-02 01:57:00,5.5,-13.5,17.72,WSW,240,0.0,0.0,40,0.00,,---,0.00,VWS V14.00,2013-01-02 08:57:00,
2013-01-02 01:58:00,5.4,-13.7,17.72,WSW,240,0.0,0.0,40,0.00,,---,0.00,VWS V14.00,2013-01-02 08:58:00,
2013-01-02 01:59:00,5.4,-13.7,17.72,WSW,240,0.0,0.0,40,0.00,,---,0.00,VWS V14.00,2013-01-02 08:59:00,
2013-01-02 02:02:00,5.4,-13.7,17.72,WSW,240,0.0,0.0,40,0.00,,---,0.00,VWS V14.00,2013-01-02 09:02:00,
2013-01-02 02:03:00,5.4,-13.7,17.72,WSW,240,0.0,0.0,40,0.00,,---,0.00,VWS V14.00,2013-01-02 09:03:00,
2013-01-02 02:04:00,5.4,-13.7,17.72,WSW,240,0.0,0.0,40,0.00,,---,0.00,VWS V14.00,2013-01-02 09:04:00,
2013-01-02 02:07:00,5.4,-13.7,17.72,WSW,240,0.0,0.0,40,0.00,,---,0.00,VWS V14.00,2013-01-02 09:07:00,
2013-01-02 02:08:00,5.4,-13.7,17.72,WSW,239,0.0,0.0,40,0.00,,---,0.00,VWS V14.00,2013-01-02 09:08:00,
2013-01-02 02:09:00,5.4,-13.7,17.72,WSW,238,0.0,0.0,40,0.00,,---,0.00,VWS V14.00,2013-01-02 09:09:00,
2013-01-02 02:12:00,5.4,-13.7,17.72,WSW,238,0.0,0.0,40,0.00,,---,0.00,VWS V14.00,2013-01-02 09:12:00,
2013-01-02 02:13:00,5.4,-13.7,17.72,SW,231,0.0,0.0,40,0.00,,---,0.00,VWS V14.00,2013-01-02 09:13:00,
2013-01-02 02:14:00,5.4,-13.7,17.72,WSW,240,0.0,0.0,40,0.00,,---,0.00,VWS V14.00,2013-01-02 09:14:00,
2013-01-02 02:17:00,5.2,-13.9,17.72,WSW,240,0.0,0.0,40,0.00,,---,0.00,VWS V14.00,2013-01-02 09:17:00,
2013-01-02 02:18:00,5.2,-13.9,17.72,SW,231,0.0,0.0,40,0.00,,---,0.00,VWS V14.00,2013-01-02 09:18:00,
2013-01-02 02:19:00,5.2,-13.9,17.72,WSW,240,0.0,0.0,40,0.00,,---,0.00,VWS V14.00,2013-01-02 09:19:00,
2013-01-02 02:22:00,5.0,-14.0,17.72,SW,231,0.0,0.0,40,0.00,,---,0.00,VWS V14.00,2013-01-02 09:22:00,
2013-01-02 02:23:00,5.0,-14.0,17.72,WSW,240,0.0,0.0,40,0.00,,---,0.00,VWS V14.00,2013-01-02 09:23:00,
2013-01-02 02:24:00,5.0,-14.0,17.72,WSW,240,0.0,0.0,40,0.00,,---,0.00,VWS V14.00,2013-01-02 09:24:00,
2013-01-02 02:28:00,5.0,-14.0,17.72,WSW,240,0.0,0.0,40,0.00,,---,0.00,VWS V14.00,2013-01-02 09:28:00,
2013-01-02 02:29:00,5.0,-14.0,17.72,SW,235,0.0,0.0,40,0.00,,---,0.00,VWS V14.00,2013-01-02 09:29:00,
2013-01-02 02:33:00,4.8,-14.2,17.72,WSW,240,0.0,0.0,40,0.00,,---,0.00,VWS V14.00,2013-01-02 09:33:00,
2013-01-02 02:34:00,4.8,-14.2,17.72,SW,215,0.0,0.0,40,0.00,,---,0.00,VWS V14.00,2013-01-02 09:34:00,
2013-01-02 02:38:00,4.8,-14.2,17.72,SW,223,0.0,0.0,40,0.00,,---,0.00,VWS V14.00,2013-01-02 09:38:00,
2013-01-02 02:39:00,4.8,-14.2,17.72,SW,226,0.0,0.0,40,0.00,,---,0.00,VWS V14.00,2013-01-02 09:39:00,
2013-01-02 02:43:00,4.8,-14.2,17.72,SW,226,0.0,0.0,40,0.00,,---,0.00,VWS V14.00,2013-01-02 09:43:00,
2013-01-02 02:44:00,4.8,-14.2,17.72,SW,227,0.0,0.0,40,0.00,,---,0.00,VWS V14.00,2013-01-02 09:44:00,
2013-01-02 02:48:00,4.6,-14.4,17.72,SW,226,0.0,0.0,40,0.00,,---,0.00,VWS V14.00,2013-01-02 09:48:00,
2013-01-02 02:49:00,4.6,-14.4,17.72,SW,227,0.0,0.0,40,0.00,,---,0.00,VWS V14.00,2013-01-02 09:49:00,
2013-01-02 02:54:00,4.5,-14.5,17.72,SW,229,0.0,0.0,40,0.00,,---,0.00,VWS V14.00,2013-01-02 09:54:00,
2013-01-02 02:55:00,4.5,-14.5,17.72,SW,229,0.0,0.0,40,0.00,,---,0.00,VWS V14.00,2013-01-02 09:55:00,
2013-01-02 02:59:00,4.5,-14.5,17.72,SW,224,0.0,0.0,40,0.00,,---,0.00,VWS V14.00,2013-01-02 09:59:00,
2013-01-02 03:00:00,4.5,-14.5,17.72,SW,230,0.0,0.0,40,0.00,,---,0.00,VWS V14.00,2013-01-02 10:00:00,
2013-01-02 03:04:00,4.3,-14.7,17.72,SW,220,0.0,0.0,40,0.00,,---,0.00,VWS V14.00,2013-01-02 10:04:00,
2013-01-02 03:05:00,4.3,-14.7,17.72,SW,220,0.0,0.0,40,0.00,,---,0.00,VWS V14.00,2013-01-02 10:05:00,
2013-01-02 03:09:00,4.1,-14.9,17.72,WSW,241,0.0,0.0,40,0.00,,---,0.00,VWS V14.00,2013-01-02 10:09:00,
2013-01-02 03:10:00,4.1,-14.9,17.72,WSW,241,0.0,0.0,40,0.00,,---,0.00,VWS V14.00,2013-01-02 10:10:00,
2013-01-02 03:14:00,4.1,-14.9,17.72,SE,136,0.0,4.5,40,0.00,,---,0.00,VWS V14.00,2013-01-02 10:14:00,
2013-01-02 03:15:00,4.1,-14.9,17.72,SE,135,0.0,0.0,40,0.00,,---,0.00,VWS V14.00,2013-01-02 10:15:00,
2013-01-02 03:19:00,4.1,-14.9,17.72,SE,136,0.0,0.0,40,0.00,,---,0.00,VWS V14.00,2013-01-02 10:19:00,
2013-01-02 03:20:00,4.1,-14.9,17.72,SE,135,0.0,0.0,40,0.00,,---,0.00,VWS V14.00,2013-01-02 10:20:00,
2013-01-02 03:24:00,4.1,-14.9,17.72,West,268,0.0,2.2,40,0.00,,---,0.00,VWS V14.00,2013-01-02 10:24:00,
2013-01-02 03:25:00,4.1,-14.9,17.72,West,269,0.0,0.0,40,0.00,,---,0.00,VWS V14.00,2013-01-02 10:25:00,
2013-01-02 03:30:00,3.9,-15.0,17.72,West,264,0.0,0.0,40,0.00,,---,0.00,VWS V14.00,2013-01-02 10:30:00,
2013-01-02 03:31:00,3.9,-15.0,17.72,WSW,258,0.0,0.0,40,0.00,,---,0.00,VWS V14.00,2013-01-02 10:31:00,
2013-01-02 03:35:00,3.9,-15.0,17.72,West,270,0.0,0.0,40,0.00,,---,0.00,VWS V14.00,2013-01-02 10:35:00,
2013-01-02 03:36:00,3.9,-15.0,17.72,West,268,0.0,0.0,40,0.00,,---,0.00,VWS V14.00,2013-01-02 10:36:00,
2013-01-02 03:40:00,3.7,-15.2,17.72,West,268,0.0,0.0,40,0.00,,---,0.00,VWS V14.00,2013-01-02 10:40:00,
2013-01-02 03:41:00,3.7,-15.2,17.72,West,268,0.0,0.0,40,0.00,,---,0.00,VWS V14.00,2013-01-02 10:41:00,
2013-01-02 03:45:00,3.7,-15.2,17.72,West,270,0.0,0.0,40,0.00,,---,0.00,VWS V14.00,2013-01-02 10:45:00,
2013-01-02 03:46:00,3.7,-15.2,17.72,West,268,0.0,0.0,40,0.00,,---,0.00,VWS V14.00,2013-01-02 10:46:00,
2013-01-02 03:50:00,3.7,-15.2,17.72,West,267,0.0,0.0,40,0.00,,---,0.00,VWS V14.00,2013-01-02 10:50:00,
2013-01-02 03:51:00,3.7,-15.2,17.72,West,267,0.0,0.0,40,0.00,,---,0.00,VWS V14.00,2013-01-02 10:51:00,
2013-01-02 03:55:00,3.7,-15.2,17.72,West,267,0.0,0.0,40,0.00,,---,0.00,VWS V14.00,2013-01-02 10:55:00,
2013-01-02 03:56:00,3.6,-15.3,17.72,West,267,0.0,0.0,40,0.00,,---,0.00,VWS V14.00,2013-01-02 10:56:00,
2013-01-02 04:00:00,3.6,-15.3,17.72,West,267,0.0,0.0,40,0.00,,---,0.00,VWS V14.00,2013-01-02 11:00:00,
2013-01-02 04:01:00,3.6,-15.3,17.72,West,267,0.0,0.0,40,0.00,,---,0.00,VWS V14.00,2013-01-02 11:01:00,
2013-01-02 04:05:00,3.4,-15.5,17.72,WSW,257,0.0,0.0,40,0.00,,---,0.00,VWS V14.00,2013-01-02 11:05:00,
2013-01-02 04:06:00,3.4,-15.5,17.72,West,267,0.0,0.0,40,0.00,,---,0.00,VWS V14.00,2013-01-02 11:06:00,
2013-01-02 04:10:00,3.4,-15.5,17.72,West,263,0.0,0.0,40,0.00,,---,0.00,VWS V14.00,2013-01-02 11:10:00,
2013-01-02 04:11:00,3.4,-15.5,17.72,West,265,0.0,0.0,40,0.00,,---,0.00,VWS V14.00,2013-01-02 11:11:00,
2013-01-02 04:15:00,3.4,-15.5,17.72,SW,236,0.0,3.1,40,0.00,,---,0.00,VWS V14.00,2013-01-02 11:15:00,
2013-01-02 04:16:00,3.4,-15.5,17.72,SW,236,0.0,0.0,40,0.00,,---,0.00,VWS V14.00,2013-01-02 11:16:00,
2013-01-02 04:20:00,3.4,-15.5,17.72,WSW,251,0.0,0.0,40,0.00,,---,0.00,VWS V14.00,2013-01-02 11:20:00,
2013-01-02 04:21:00,3.4,-15.5,17.72,WSW,251,0.0,0.0,40,0.00,,---,0.00,VWS V14.00,2013-01-02 11:21:00,
2013-01-02 04:25:00,3.2,-15.7,17.72,WSW,251,0.0,0.0,40,0.00,,---,0.00,VWS V14.00,2013-01-02 11:25:00,
2013-01-02 04:26:00,3.2,-15.7,17.72,WSW,251,0.0,0.0,40,0.00,,---,0.00,VWS V14.00,2013-01-02 11:26:00,
2013-01-02 04:31:00,3.2,-15.7,17.72,West,265,0.0,0.0,40,0.00,,---,0.00,VWS V14.00,2013-01-02 11:31:00,
2013-01-02 04:32:00,3.2,-15.7,17.72,West,264,0.0,0.0,40,0.00,,---,0.00,VWS V14.00,2013-01-02 11:32:00,
2013-01-02 04:36:00,3.2,-15.7,17.72,West,265,0.0,0.0,40,0.00,,---,0.00,VWS V14.00,2013-01-02 11:36:00,
2013-01-02 04:37:00,3.2,-15.7,17.72,West,263,0.0,0.0,40,0.00,,---,0.00,VWS V14.00,2013-01-02 11:37:00,
2013-01-02 04:41:00,3.2,-15.7,17.72,West,263,0.0,0.0,40,0.00,,---,0.00,VWS V14.00,2013-01-02 11:41:00,
2013-01-02 04:42:00,3.2,-15.7,17.72,West,264,0.0,0.0,40,0.00,,---,0.00,VWS V14.00,2013-01-02 11:42:00,
2013-01-02 04:46:00,3.0,-15.8,17.72,West,263,0.0,0.0,40,0.00,,---,0.00,VWS V14.00,2013-01-02 11:46:00,
2013-01-02 04:47:00,3.0,-15.8,17.72,West,264,0.0,0.0,40,0.00,,---,0.00,VWS V14.00,2013-01-02 11:47:00,
2013-01-02 04:51:00,2.8,-16.0,17.72,West,266,0.0,0.0,40,0.00,,---,0.00,VWS V14.00,2013-01-02 11:51:00,
2013-01-02 04:52:00,2.8,-16.0,17.72,West,263,0.0,0.0,40,0.00,,---,0.00,VWS V14.00,2013-01-02 11:52:00,
2013-01-02 04:56:00,2.8,-16.0,17.72,West,266,0.0,0.0,40,0.00,,---,0.00,VWS V14.00,2013-01-02 11:56:00,
2013-01-02 04:57:00,2.8,-16.0,17.72,West,263,0.0,0.0,40,0.00,,---,0.00,VWS V14.00,2013-01-02 11:57:00,
2013-01-02 05:01:00,2.8,-16.0,17.72,West,267,0.0,0.0,40,0.00,,---,0.00,VWS V14.00,2013-01-02 12:01:00,
2013-01-02 05:02:00,2.8,-16.0,17.72,West,265,0.0,0.0,40,0.00,,---,0.00,VWS V14.00,2013-01-02 12:02:00,
2013-01-02 05:06:00,2.7,-16.2,17.72,West,267,0.0,0.0,40,0.00,,---,0.00,VWS V14.00,2013-01-02 12:06:00,
2013-01-02 05:07:00,2.7,-16.2,17.72,West,267,0.0,0.0,40,0.00,,---,0.00,VWS V14.00,2013-01-02 12:07:00,
2013-01-02 05:11:00,2.5,-16.3,17.72,West,267,0.0,0.0,40,0.00,,---,0.00,VWS V14.00,2013-01-02 12:11:00,
2013-01-02 05:12:00,2.5,-16.3,17.72,West,267,0.0,0.0,40,0.00,,---,0.00,VWS V14.00,2013-01-02 12:12:00,
2013-01-02 05:16:00,2.5,-16.3,17.72,West,267,0.0,0.0,40,0.00,,---,0.00,VWS V14.00,2013-01-02 12:16:00,
2013-01-02 05:17:00,2.5,-16.3,17.72,West,267,0.0,0.0,40,0.00,,---,0.00,VWS V14.00,2013-01-02 12:17:00,
2013-01-02 05:22:00,2.3,-16.5,17.72,West,267,0.0,0.0,40,0.00,,---,0.00,VWS V14.00,2013-01-02 12:22:00,
2013-01-02 05:23:00,2.3,-16.5,17.72,West,267,0.0,0.0,40,0.00,,---,0.00,VWS V14.00,2013-01-02 12:23:00,
2013-01-02 05:27:00,2.1,-16.6,17.72,West,267,0.0,0.0,40,0.00,,---,0.00,VWS V14.00,2013-01-02 12:27:00,
2013-01-02 05:28:00,2.1,-16.6,17.72,West,267,0.0,0.0,40,0.00,,---,0.00,VWS V14.00,2013-01-02 12:28:00,
2013-01-02 05:32:00,2.1,-16.6,17.72,West,267,0.0,0.0,40,0.00,,---,0.00,VWS V14.00,2013-01-02 12:32:00,
2013-01-02 05:33:00,1.9,-16.8,17.72,West,267,0.0,0.0,40,0.00,,---,0.00,VWS V14.00,2013-01-02 12:33:00,
2013-01-02 05:37:00,1.9,-16.8,17.72,West,267,0.0,0.0,40,0.00,,---,0.00,VWS V14.00,2013-01-02 12:37:00,
2013-01-02 05:38:00,1.9,-16.8,17.72,West,267,0.0,0.0,40,0.00,,---,0.00,VWS V14.00,2013-01-02 12:38:00,
2013-01-02 05:42:00,1.9,-16.8,17.72,West,269,0.0,0.0,40,0.00,,---,0.00,VWS V14.00,2013-01-02 12:42:00,
2013-01-02 05:43:00,1.9,-16.8,17.72,West,268,0.0,0.0,40,0.00,,---,0.00,VWS V14.00,2013-01-02 12:43:00,
2013-01-02 05:47:00,1.9,-16.8,17.72,West,269,0.0,0.0,40,0.00,,---,0.00,VWS V14.00,2013-01-02 12:47:00,
2013-01-02 05:48:00,1.9,-16.8,17.72,West,264,0.0,0.0,40,0.00,,---,0.00,VWS V14.00,2013-01-02 12:48:00,
2013-01-02 05:52:00,1.8,-17.0,17.72,WSW,257,0.0,0.0,40,0.00,,---,0.00,VWS V14.00,2013-01-02 12:52:00,
2013-01-02 05:53:00,1.8,-17.0,17.72,WSW,252,0.0,0.0,40,0.00,,---,0.00,VWS V14.00,2013-01-02 12:53:00,
2013-01-02 05:57:00,1.8,-17.0,17.72,WSW,258,0.0,0.0,40,0.00,,---,0.00,VWS V14.00,2013-01-02 12:57:00,
2013-01-02 05:58:00,1.8,-17.0,17.72,WSW,256,0.0,0.0,40,0.00,,---,0.00,VWS V14.00,2013-01-02 12:58:00,
2013-01-02 06:02:00,1.6,-17.1,17.72,WSW,258,0.0,0.0,40,0.00,,---,0.00,VWS V14.00,2013-01-02 13:02:00,
2013-01-02 06:03:00,1.6,-17.1,17.72,WSW,258,0.0,0.0,40,0.00,,---,0.00,VWS V14.00,2013-01-02 13:03:00,
2013-01-02 06:07:00,1.6,-17.1,17.72,WSW,248,0.0,0.0,40,0.00,,---,0.00,VWS V14.00,2013-01-02 13:07:00,
2013-01-02 06:08:00,1.6,-17.1,17.72,WSW,257,0.0,0.0,40,0.00,,---,0.00,VWS V14.00,2013-01-02 13:08:00,
2013-01-02 06:13:00,1.6,-17.1,17.72,WSW,258,0.0,0.0,40,0.00,,---,0.00,VWS V14.00,2013-01-02 13:13:00,
2013-01-02 06:18:00,1.6,-17.1,17.72,WSW,248,0.0,0.0,40,0.00,,---,0.00,VWS V14.00,2013-01-02 13:18:00,
2013-01-02 06:23:00,1.6,-17.1,17.72,West,260,0.0,0.0,40,0.00,,---,0.00,VWS V14.00,2013-01-02 13:23:00,
2013-01-02 06:28:00,1.6,-17.1,17.72,WSW,258,0.0,0.0,40,0.00,,---,0.00,VWS V14.00,2013-01-02 13:28:00,
2013-01-02 06:33:00,1.4,-17.3,17.72,WSW,252,0.0,0.0,40,0.00,,---,0.00,VWS V14.00,2013-01-02 13:33:00,
2013-01-02 06:34:00,1.4,-17.3,17.72,WSW,258,0.0,0.0,40,0.00,,---,0.00,VWS V14.00,2013-01-02 13:34:00,
2013-01-02 06:38:00,1.4,-17.3,17.72,WSW,250,0.0,0.0,40,0.00,,---,0.00,VWS V14.00,2013-01-02 13:38:00,
2013-01-02 06:39:00,1.4,-17.3,17.72,WSW,252,0.0,0.0,40,0.00,,---,0.00,VWS V14.00,2013-01-02 13:39:00,
2013-01-02 06:43:00,1.2,-17.5,17.72,WSW,258,0.0,0.0,40,0.00,,---,0.00,VWS V14.00,2013-01-02 13:43:00,
2013-01-02 06:44:00,1.2,-17.5,17.72,WSW,257,0.0,0.0,40,0.00,,---,0.00,VWS V14.00,2013-01-02 13:44:00,
2013-01-02 06:48:00,1.2,-17.5,17.72,WSW,258,0.0,0.0,40,0.00,,---,0.00,VWS V14.00,2013-01-02 13:48:00,
2013-01-02 06:49:00,1.2,-17.5,17.72,WSW,258,0.0,0.0,40,0.00,,---,0.00,VWS V14.00,2013-01-02 13:49:00,
2013-01-02 06:53:00,1.2,-17.5,17.72,North,1,0.0,0.0,40,0.00,,---,0.00,VWS V14.00,2013-01-02 13:53:00,
2013-01-02 06:54:00,1.2,-17.5,17.72,North,0,0.0,0.0,40,0.00,,---,0.00,VWS V14.00,2013-01-02 13:54:00,
2013-01-02 06:58:00,1.2,-17.5,17.72,NW,324,0.0,0.0,40,0.00,,---,0.00,VWS V14.00,2013-01-02 13:58:00,
2013-01-02 06:59:00,1.2,-17.5,17.72,NW,325,0.0,0.0,40,0.00,,---,0.00,VWS V14.00,2013-01-02 13:59:00,
2013-01-02 07:03:00,1.2,-17.5,17.72,NW,317,2.2,2.2,40,0.00,,---,0.00,VWS V14.00,2013-01-02 14:03:00,
2013-01-02 07:04:00,1.2,-17.5,17.72,NW,317,2.2,2.2,40,0.00,,---,0.00,VWS V14.00,2013-01-02 14:04:00,
2013-01-02 07:09:00,1.2,-17.5,17.72,WNW,282,0.0,0.0,40,0.00,,---,0.00,VWS V14.00,2013-01-02 14:09:00,
2013-01-02 07:14:00,1.0,-17.6,17.72,WSW,256,0.0,0.0,40,0.00,,---,0.00,VWS V14.00,2013-01-02 14:14:00,
2013-01-02 07:19:00,0.7,-18.0,17.72,WSW,256,0.0,0.0,40,0.00,,---,0.00,VWS V14.00,2013-01-02 14:19:00,
2013-01-02 07:24:00,0.7,-18.0,17.72,WSW,257,0.0,0.0,40,0.00,,---,0.00,VWS V14.00,2013-01-02 14:24:00,
2013-01-02 07:29:00,0.7,-18.0,17.72,WSW,256,0.0,0.0,40,0.00,,---,0.00,VWS V14.00,2013-01-02 14:29:00,
2013-01-02 07:30:00,0.7,-18.0,17.72,WSW,256,0.0,0.0,40,0.00,,---,0.00,VWS V14.00,2013-01-02 14:30:00,
2013-01-02 07:34:00,0.7,-18.0,17.72,WSW,246,0.0,0.0,40,0.00,,---,0.00,VWS V14.00,2013-01-02 14:34:00,
2013-01-02 07:35:00,0.7,-18.0,17.72,WSW,252,0.0,0.0,40,0.00,,---,0.00,VWS V14.00,2013-01-02 14:35:00,
2013-01-02 07:39:00,0.7,-18.0,17.72,WSW,256,0.0,0.0,40,0.00,,---,0.00,VWS V14.00,2013-01-02 14:39:00,
2013-01-02 07:40:00,0.7,-18.0,17.72,WSW,253,2.7,2.7,40,0.00,,---,0.00,VWS V14.00,2013-01-02 14:40:00,
2013-01-02 07:44:00,0.7,-18.0,17.72,SSE,152,0.0,0.0,40,0.00,,---,0.00,VWS V14.00,2013-01-02 14:44:00,
2013-01-02 07:45:00,0.7,-18.0,17.72,SSE,151,0.0,0.0,40,0.00,,---,0.00,VWS V14.00,2013-01-02 14:45:00,
2013-01-02 07:49:00,0.7,-18.0,17.72,South,181,0.0,0.0,40,0.00,,---,0.00,VWS V14.00,2013-01-02 14:49:00,
2013-01-02 07:50:00,0.7,-18.0,17.72,South,181,0.0,0.0,40,0.00,,---,0.00,VWS V14.00,2013-01-02 14:50:00,
2013-01-02 07:54:00,0.7,-18.0,17.72,SSE,150,2.2,2.2,40,0.00,,---,0.00,VWS V14.00,2013-01-02 14:54:00,
2013-01-02 07:55:00,0.7,-18.0,17.72,SSE,149,0.0,2.2,40,0.00,,---,0.00,VWS V14.00,2013-01-02 14:55:00,
2013-01-02 07:59:00,0.7,-18.0,17.72,ESE,116,2.7,2.7,40,0.00,,---,0.00,VWS V14.00,2013-01-02 14:59:00,
2013-01-02 08:00:00,0.7,-18.0,17.72,ESE,117,2.2,2.7,40,0.00,,---,0.00,VWS V14.00,2013-01-02 15:00:00,
2013-01-02 08:05:00,0.7,-18.0,17.72,ESE,107,0.0,0.0,40,0.00,,---,0.00,VWS V14.00,2013-01-02 15:05:00,
2013-01-02 08:10:00,0.7,-18.0,17.72,East,99,0.0,0.0,40,0.00,,---,0.00,VWS V14.00,2013-01-02 15:10:00,
2013-01-02 08:11:00,0.7,-18.0,17.72,East,99,0.0,0.0,40,0.00,,---,0.00,VWS V14.00,2013-01-02 15:11:00,
2013-01-02 08:15:00,0.7,-18.0,17.72,ESE,103,0.0,0.0,40,0.00,,---,0.00,VWS V14.00,2013-01-02 15:15:00,
2013-01-02 08:16:00,0.7,-18.0,17.72,ESE,103,0.0,0.0,40,0.00,,---,0.00,VWS V14.00,2013-01-02 15:16:00,
2013-01-02 08:20:00,0.7,-18.0,17.72,ESE,103,0.0,0.0,40,0.00,,---,0.00,VWS V14.00,2013-01-02 15:20:00,
2013-01-02 08:21:00,0.7,-18.0,17.72,East,101,0.0,0.0,40,0.00,,---,0.00,VWS V14.00,2013-01-02 15:21:00,
2013-01-02 08:25:00,0.7,-18.0,17.72,ESE,103,0.0,0.0,40,0.00,,---,0.00,VWS V14.00,2013-01-02 15:25:00,
2013-01-02 08:26:00,0.7,-18.0,17.72,ESE,103,0.0,0.0,40,0.00,,---,0.00,VWS V14.00,2013-01-02 15:26:00,
2013-01-02 08:30:00,0.9,-17.8,17.72,ESE,103,0.0,0.0,40,0.00,,---,0.00,VWS V14.00,2013-01-02 15:30:00,
2013-01-02 08:31:00,0.9,-17.8,17.72,ESE,103,0.0,0.0,40,0.00,,---,0.00,VWS V14.00,2013-01-02 15:31:00,
2013-01-02 08:35:00,1.0,-17.6,17.72,ESE,103,0.0,0.0,40,0.00,,---,0.00,VWS V14.00,2013-01-02 15:35:00,
2013-01-02 08:36:00,1.0,-17.6,17.72,ESE,103,0.0,0.0,40,0.00,,---,0.00,VWS V14.00,2013-01-02 15:36:00,
2013-01-02 08:40:00,1.2,-17.5,17.72,ESE,103,0.0,0.0,40,0.00,,---,0.00,VWS V14.00,2013-01-02 15:40:00,
2013-01-02 08:41:00,1.2,-17.5,17.72,East,99,0.0,0.0,40,0.00,,---,0.00,VWS V14.00,2013-01-02 15:41:00,
2013-01-02 08:46:00,1.2,-17.5,17.72,ESE,103,0.0,0.0,40,0.00,,---,0.00,VWS V14.00,2013-01-02 15:46:00,
2013-01-02 08:51:00,1.4,-17.3,17.72,ESE,103,0.0,0.0,40,0.00,,---,0.00,VWS V14.00,2013-01-02 15:51:00,
2013-01-02 08:56:00,1.6,-17.1,17.72,ESE,103,0.0,0.0,40,0.00,,---,0.00,VWS V14.00,2013-01-02 15:56:00,
2013-01-02 09:01:00,1.8,-17.0,17.72,ESE,103,0.0,0.0,40,0.00,,---,0.00,VWS V14.00,2013-01-02 16:01:00,
2013-01-02 09:02:00,1.8,-17.0,17.72,ESE,103,0.0,0.0,40,0.00,,---,0.00,VWS V14.00,2013-01-02 16:02:00,
2013-01-02 09:06:00,2.1,-16.6,17.72,WSW,238,0.0,0.0,40,0.00,,---,0.00,VWS V14.00,2013-01-02 16:06:00,
2013-01-02 09:07:00,2.3,-16.5,17.72,WSW,238,0.0,0.0,40,0.00,,---,0.00,VWS V14.00,2013-01-02 16:07:00,
2013-01-02 09:11:00,2.8,-16.0,17.72,WSW,237,0.0,0.0,40,0.00,,---,0.00,VWS V14.00,2013-01-02 16:11:00,
2013-01-02 09:12:00,2.8,-16.0,17.72,WSW,237,0.0,0.0,40,0.00,,---,0.00,VWS V14.00,2013-01-02 16:12:00,
2013-01-02 09:16:00,3.2,-15.7,17.72,WSW,239,0.0,0.0,40,0.00,,---,0.00,VWS V14.00,2013-01-02 16:16:00,
2013-01-02 09:17:00,3.2,-15.7,17.72,WSW,239,0.0,0.0,40,0.00,,---,0.00,VWS V14.00,2013-01-02 16:17:00,
2013-01-02 09:21:00,3.2,-15.7,17.72,WSW,240,0.0,0.0,40,0.00,,---,0.00,VWS V14.00,2013-01-02 16:21:00,
2013-01-02 09:22:00,3.2,-15.7,17.72,WSW,240,0.0,0.0,40,0.00,,---,0.00,VWS V14.00,2013-01-02 16:22:00,
2013-01-02 09:26:00,3.7,-15.2,17.72,SW,236,0.0,0.0,40,0.00,,---,0.00,VWS V14.00,2013-01-02 16:26:00,
2013-01-02 09:27:00,3.7,-15.2,17.72,WSW,237,0.0,0.0,40,0.00,,---,0.00,VWS V14.00,2013-01-02 16:27:00,
2013-01-02 09:31:00,4.1,-14.9,17.72,WSW,238,0.0,0.0,40,0.00,,---,0.00,VWS V14.00,2013-01-02 16:31:00,
2013-01-02 09:32:00,4.1,-14.9,17.72,WSW,238,0.0,0.0,40,0.00,,---,0.00,VWS V14.00,2013-01-02 16:32:00,
2013-01-02 09:36:00,4.1,-14.9,17.72,WSW,256,0.0,2.2,40,0.00,,---,0.00,VWS V14.00,2013-01-02 16:36:00,
2013-01-02 09:37:00,4.1,-14.9,17.72,WSW,257,0.0,0.0,40,0.00,,---,0.00,VWS V14.00,2013-01-02 16:37:00,
2013-01-02 09:41:00,4.5,-14.5,17.72,WSW,253,0.0,0.0,40,0.00,,---,0.00,VWS V14.00,2013-01-02 16:41:00,
2013-01-02 09:42:00,4.5,-14.5,17.72,WSW,256,0.0,0.0,40,0.00,,---,0.00,VWS V14.00,2013-01-02 16:42:00,
2013-01-02 09:47:00,4.6,-14.4,17.72,WSW,252,0.0,0.0,40,0.00,,---,0.00,VWS V14.00,2013-01-02 16:47:00,
2013-01-02 09:52:00,5.2,-13.9,17.72,WSW,252,0.0,0.0,40,0.00,,---,0.00,VWS V14.00,2013-01-02 16:52:00,
2013-01-02 09:57:00,5.4,-13.7,17.72,WSW,254,0.0,0.0,40,0.00,,---,0.00,VWS V14.00,2013-01-02 16:57:00,
2013-01-02 09:58:00,5.5,-13.5,17.72,WSW,254,0.0,0.0,40,0.00,,---,0.00,VWS V14.00,2013-01-02 16:58:00,
2013-01-02 10:02:00,5.7,-13.4,17.72,WSW,254,0.0,0.0,40,0.00,,---,0.00,VWS V14.00,2013-01-02 17:02:00,
2013-01-02 10:03:00,5.7,-13.4,17.72,WSW,252,0.0,0.0,40,0.00,,---,0.00,VWS V14.00,2013-01-02 17:03:00,
2013-01-02 10:07:00,6.1,-13.1,17.72,WSW,254,0.0,0.0,40,0.00,,---,0.00,VWS V14.00,2013-01-02 17:07:00,
2013-01-02 10:08:00,6.3,-12.9,17.72,WSW,242,0.0,0.0,40,0.00,,---,0.00,VWS V14.00,2013-01-02 17:08:00,
2013-01-02 10:12:00,6.8,-12.4,17.72,SW,228,0.0,0.0,40,0.00,,---,0.00,VWS V14.00,2013-01-02 17:12:00,
2013-01-02 10:13:00,6.8,-12.4,17.72,SW,223,0.0,0.0,40,0.00,,---,0.00,VWS V14.00,2013-01-02 17:13:00,
2013-01-02 10:17:00,7.5,-11.7,17.72,West,262,0.0,0.0,40,0.00,,---,0.00,VWS V14.00,2013-01-02 17:17:00,
2013-01-02 10:18:00,7.5,-11.7,17.72,WNW,283,0.0,2.2,40,0.00,,---,0.00,VWS V14.00,2013-01-02 17:18:00,
2013-01-02 10:22:00,7.7,-11.6,17.72,WNW,291,0.0,0.0,40,0.00,,---,0.00,VWS V14.00,2013-01-02 17:22:00,
2013-01-02 10:23:00,7.7,-11.6,17.72,WNW,289,0.0,0.0,40,0.00,,---,0.00,VWS V14.00,2013-01-02 17:23:00,
2013-01-02 10:27:00,7.9,-11.4,17.72,WNW,289,0.0,0.0,40,0.00,,---,0.00,VWS V14.00,2013-01-02 17:27:00,
2013-01-02 10:28:00,7.9,-11.4,17.72,WNW,289,0.0,0.0,40,0.00,,---,0.00,VWS V14.00,2013-01-02 17:28:00,
2013-01-02 10:32:00,8.4,-10.9,17.72,West,281,0.0,0.0,40,0.00,,---,0.00,VWS V14.00,2013-01-02 17:32:00,
2013-01-02 10:33:00,8.4,-10.9,17.72,West,280,0.0,0.0,40,0.00,,---,0.00,VWS V14.00,2013-01-02 17:33:00,
2013-01-02 10:37:00,9.0,-10.4,17.72,WSW,253,0.0,0.0,40,0.00,,---,0.00,VWS V14.00,2013-01-02 17:37:00,
2013-01-02 10:38:00,9.0,-10.4,17.72,WSW,252,0.0,0.0,40,0.00,,---,0.00,VWS V14.00,2013-01-02 17:38:00,
2013-01-02 10:42:00,9.3,-10.1,17.72,WNW,297,2.2,2.2,40,0.00,,---,0.00,VWS V14.00,2013-01-02 17:42:00,
2013-01-02 10:43:00,9.3,-10.1,17.72,WNW,295,0.0,2.2,40,0.00,,---,0.00,VWS V14.00,2013-01-02 17:43:00,
2013-01-02 10:47:00,9.7,-9.8,17.72,WNW,295,0.0,0.0,40,0.00,,---,0.00,VWS V14.00,2013-01-02 17:47:00,
2013-01-02 10:48:00,9.7,-9.8,17.72,WNW,294,0.0,0.0,40,0.00,,---,0.00,VWS V14.00,2013-01-02 17:48:00,
2013-01-02 10:52:00,10.2,-9.3,17.72,SW,223,0.0,0.0,40,0.00,,---,0.00,VWS V14.00,2013-01-02 17:52:00,
2013-01-02 10:53:00,10.2,-9.3,17.72,SW,223,0.0,0.0,40,0.00,,---,0.00,VWS V14.00,2013-01-02 17:53:00,
2013-01-02 10:54:00,10.4,-9.1,17.72,SW,224,0.0,0.0,40,0.00,,---,0.00,VWS V14.00,2013-01-02 17:54:00,
2013-01-02 10:57:00,10.8,-8.8,17.72,SSW,193,0.0,0.0,40,0.00,,---,0.00,VWS V14.00,2013-01-02 17:57:00,
2013-01-02 10:58:00,10.8,-8.8,17.72,SSW,210,0.0,0.0,40,0.00,,---,0.00,VWS V14.00,2013-01-02 17:58:00,
2013-01-02 10:59:00,10.9,-8.6,17.72,SSW,209,0.0,0.0,40,0.00,,---,0.00,VWS V14.00,2013-01-02 17:59:00,
2013-01-02 11:03:00,11.1,-8.5,17.72,SE,135,0.0,0.0,40,0.00,,---,0.00,VWS V14.00,2013-01-02 18:03:00,
2013-01-02 11:04:00,11.1,-8.5,17.72,SE,128,3.1,3.6,40,0.00,,---,0.00,VWS V14.00,2013-01-02 18:04:00,
2013-01-02 11:08:00,11.5,-8.1,17.72,East,100,4.0,4.0,40,0.00,,---,0.00,VWS V14.00,2013-01-02 18:08:00,
2013-01-02 11:09:00,11.7,-8.0,17.72,SE,130,3.6,3.6,40,0.00,,---,0.00,VWS V14.00,2013-01-02 18:09:00,
2013-01-02 11:13:00,12.0,-7.7,17.72,South,175,0.0,0.0,40,0.00,,---,0.00,VWS V14.00,2013-01-02 18:13:00,
2013-01-02 11:14:00,12.0,-7.7,17.72,South,174,0.0,0.0,40,0.00,,---,0.00,VWS V14.00,2013-01-02 18:14:00,
2013-01-02 11:18:00,12.4,-7.3,17.72,NW,313,0.0,0.0,40,0.00,,---,0.00,VWS V14.00,2013-01-02 18:18:00,
2013-01-02 11:19:00,12.6,-7.2,17.72,WNW,298,0.0,0.0,40,0.00,,---,0.00,VWS V14.00,2013-01-02 18:19:00,
2013-01-02 11:23:00,12.7,-7.0,17.72,SE,137,0.0,0.0,40,0.00,,---,0.00,VWS V14.00,2013-01-02 18:23:00,
2013-01-02 11:24:00,12.9,-6.8,17.72,WSW,252,0.0,0.0,40,0.00,,---,0.00,VWS V14.00,2013-01-02 18:24:00,
2013-01-02 11:25:00,12.9,-6.8,17.72,WSW,253,2.7,2.7,40,0.00,,---,0.00,VWS V14.00,2013-01-02 18:25:00,
2013-01-02 11:28:00,13.3,-6.5,17.72,SW,215,0.0,2.2,40,0.00,,---,0.00,VWS V14.00,2013-01-02 18:28:00,
2013-01-02 11:29:00,13.5,-6.3,17.72,South,172,0.0,0.0,40,0.00,,---,0.00,VWS V14.00,2013-01-02 18:29:00,
2013-01-02 11:30:00,13.5,-6.3,17.72,South,190,0.0,2.7,40,0.00,,---,0.00,VWS V14.00,2013-01-02 18:30:00,
2013-01-02 11:33:00,13.6,-6.2,17.72,ESE,111,0.0,3.1,40,0.00,,---,0.00,VWS V14.00,2013-01-02 18:33:00,
2013-01-02 11:34:00,13.8,-6.0,17.72,NE,39,0.0,3.1,40,0.00,,---,0.00,VWS V14.00,2013-01-02 18:34:00,
2013-01-02 11:35:00,13.8,-6.0,17.72,North,349,3.6,3.6,40,0.00,,---,0.00,VWS V14.00,2013-01-02 18:35:00,
2013-01-02 11:38:00,14.2,-3.2,17.72,WNW,298,0.0,0.0,45,0.00,,---,0.00,VWS V14.00,2013-01-02 18:38:00,
2013-01-02 11:39:00,14.2,-3.2,17.72,East,97,2.7,2.7,45,0.00,,---,0.00,VWS V14.00,2013-01-02 18:39:00,
2013-01-02 11:40:00,14.2,-3.2,17.72,ESE,109,4.9,4.9,45,0.00,,---,0.00,VWS V14.00,2013-01-02 18:40:00,
2013-01-02 11:43:00,14.4,-3.1,17.72,ESE,113,0.0,0.0,45,0.00,,---,0.00,VWS V14.00,2013-01-02 18:43:00,
2013-01-02 11:44:00,14.5,-2.9,17.72,ESE,109,0.0,0.0,45,0.00,,---,0.00,VWS V14.00,2013-01-02 18:44:00,
2013-01-02 11:45:00,14.5,-2.9,17.72,East,82,0.0,3.1,45,0.00,,---,0.00,VWS V14.00,2013-01-02 18:45:00,
2013-01-02 11:48:00,14.9,-3.1,17.72,SSW,209,0.0,0.0,44,0.00,,---,0.00,VWS V14.00,2013-01-02 18:48:00,
2013-01-02 11:49:00,14.9,-3.1,17.72,WSW,251,0.0,2.2,44,0.00,,---,0.00,VWS V14.00,2013-01-02 18:49:00,
2013-01-02 11:50:00,15.1,-2.9,17.72,West,264,0.0,0.0,44,0.00,,---,0.00,VWS V14.00,2013-01-02 18:50:00,
2013-01-02 11:53:00,15.3,-2.7,17.72,SE,137,5.4,9.6,44,0.00,,---,0.00,VWS V14.00,2013-01-02 18:53:00,
2013-01-02 11:54:00,15.4,-2.6,17.72,SE,139,4.0,5.4,44,0.00,,---,0.00,VWS V14.00,2013-01-02 18:54:00,
2013-01-02 11:55:00,15.4,-2.6,17.72,SSW,203,0.0,4.9,44,0.00,,---,0.00,VWS V14.00,2013-01-02 18:55:00,
2013-01-02 11:58:00,15.6,-2.4,17.72,WNW,283,0.0,0.0,44,0.00,,---,0.00,VWS V14.00,2013-01-02 18:58:00,
2013-01-02 11:59:00,15.8,-2.2,17.72,WNW,283,0.0,0.0,44,0.00,,---,0.00,VWS V14.00,2013-01-02 18:59:00,
2013-01-02 12:00:00,15.8,-2.2,17.72,WNW,283,0.0,0.0,44,0.00,,---,0.00,VWS V14.00,2013-01-02 19:00:00,
2013-01-02 12:04:00,16.0,-2.6,17.72,WSW,256,0.0,0.0,43,0.00,,---,0.00,VWS V14.00,2013-01-02 19:04:00,
2013-01-02 12:05:00,16.0,-2.6,17.72,NW,309,0.0,3.1,43,0.00,,---,0.00,VWS V14.00,2013-01-02 19:05:00,
2013-01-02 12:09:00,16.0,-3.0,17.72,ESE,105,4.0,4.0,42,0.00,,---,0.00,VWS V14.00,2013-01-02 19:09:00,
2013-01-02 12:10:00,16.2,-2.9,17.72,ESE,106,5.8,5.8,42,0.00,,---,0.00,VWS V14.00,2013-01-02 19:10:00,
2013-01-02 12:14:00,16.3,-2.2,17.72,SSW,203,0.0,4.0,43,0.00,,---,0.00,VWS V14.00,2013-01-02 19:14:00,
2013-01-02 12:15:00,16.3,-2.7,17.72,SW,229,3.1,3.1,42,0.00,,---,0.00,VWS V14.00,2013-01-02 19:15:00,
2013-01-02 12:19:00,16.5,-3.1,17.72,SW,223,0.0,2.7,41,0.00,,---,0.00,VWS V14.00,2013-01-02 19:19:00,
2013-01-02 12:20:00,16.7,-2.9,17.72,East,89,4.9,5.4,41,0.00,,---,0.00,VWS V14.00,2013-01-02 19:20:00,
2013-01-02 12:24:00,16.9,-2.7,17.72,SSW,209,0.0,3.6,41,0.00,,---,0.00,VWS V14.00,2013-01-02 19:24:00,
2013-01-02 12:25:00,16.9,-2.7,17.72,SSW,210,2.2,2.2,41,0.00,,---,0.00,VWS V14.00,2013-01-02 19:25:00,
2013-01-02 12:29:00,17.1,-3.1,17.72,South,181,2.2,5.4,40,0.00,,---,0.00,VWS V14.00,2013-01-02 19:29:00,
2013-01-02 12:30:00,17.1,-3.1,17.72,South,178,2.7,2.7,40,0.00,,---,0.00,VWS V14.00,2013-01-02 19:30:00,
2013-01-02 12:31:00,17.2,-2.9,17.72,South,171,0.0,0.0,40,0.00,,---,0.00,VWS V14.00,2013-01-02 19:31:00,
2013-01-02 12:35:00,17.4,-2.8,17.72,SE,146,5.8,8.3,40,0.00,,---,0.00,VWS V14.00,2013-01-02 19:35:00,
2013-01-02 12:36:00,17.4,-2.8,17.72,ESE,118,6.3,6.3,40,0.00,,---,0.00,VWS V14.00,2013-01-02 19:36:00,
2013-01-02 12:40:00,17.6,-2.6,17.72,ESE,108,5.4,5.8,40,0.00,,---,0.00,VWS V14.00,2013-01-02 19:40:00,
2013-01-02 12:41:00,17.8,-2.4,17.72,ESE,121,6.3,6.3,40,0.00,,---,0.00,VWS V14.00,2013-01-02 19:41:00,
2013-01-02 12:45:00,18.1,-2.1,17.72,ESE,123,7.6,7.6,40,0.00,,---,0.00,VWS V14.00,2013-01-02 19:45:00,
2013-01-02 12:46:00,18.1,-2.1,17.72,SE,138,3.6,3.6,40,0.00,,---,0.00,VWS V14.00,2013-01-02 19:46:00,
2013-01-02 12:50:00,18.5,-2.3,17.72,SW,215,3.1,5.4,39,0.00,,---,0.00,VWS V14.00,2013-01-02 19:50:00,
2013-01-02 12:51:00,18.5,-2.3,17.72,East,94,8.7,8.7,39,0.00,,---,0.00,VWS V14.00,2013-01-02 19:51:00,
2013-01-02 12:55:00,18.7,-2.2,17.72,SE,124,6.3,6.3,39,0.00,,---,0.00,VWS V14.00,2013-01-02 19:55:00,
2013-01-02 12:56:00,18.7,-2.2,17.72,SSW,213,0.0,7.6,39,0.00,,---,0.00,VWS V14.00,2013-01-02 19:56:00,
2013-01-02 13:00:00,18.9,-2.0,17.72,SSE,159,5.4,5.4,39,0.00,,---,0.00,VWS V14.00,2013-01-02 20:00:00,
2013-01-02 13:01:00,18.9,-2.5,17.72,SE,142,3.6,4.0,38,0.00,,---,0.00,VWS V14.00,2013-01-02 20:01:00,
2013-01-02 13:02:00,19.0,-2.4,17.72,South,183,0.0,3.1,38,0.00,,---,0.00,VWS V14.00,2013-01-02 20:02:00,
2013-01-02 13:05:00,19.2,-2.2,17.72,East,99,5.4,7.6,38,0.00,,---,0.00,VWS V14.00,2013-01-02 20:05:00,
2013-01-02 13:06:00,19.2,-2.2,17.72,SSW,200,0.0,0.0,38,0.00,,---,0.00,VWS V14.00,2013-01-02 20:06:00,
2013-01-02 13:07:00,19.2,-2.2,17.72,South,174,2.7,2.7,38,0.00,,---,0.00,VWS V14.00,2013-01-02 20:07:00,
2013-01-02 13:10:00,19.2,-2.2,17.72,SE,139,8.1,8.1,38,0.00,,---,0.00,VWS V14.00,2013-01-02 20:10:00,
2013-01-02 13:11:00,19.2,-2.2,17.72,SSW,198,3.6,4.9,38,0.00,,---,0.00,VWS V14.00,2013-01-02 20:11:00,
2013-01-02 13:12:00,19.4,-2.6,17.72,SE,144,5.8,5.8,37,0.00,,---,0.00,VWS V14.00,2013-01-02 20:12:00,
2013-01-02 13:15:00,19.4,-2.6,17.72,ESE,118,5.8,5.8,37,0.00,,---,0.00,VWS V14.00,2013-01-02 20:15:00,
2013-01-02 13:16:00,19.4,-2.6,17.72,ESE,109,3.1,3.1,37,0.00,,---,0.00,VWS V14.00,2013-01-02 20:16:00,
2013-01-02 13:17:00,19.4,-2.6,17.72,ESE,111,8.7,8.7,37,0.00,,---,0.00,VWS V14.00,2013-01-02 20:17:00,
2013-01-02 13:20:00,19.8,-2.3,17.72,SE,139,4.0,4.0,37,0.00,,---,0.00,VWS V14.00,2013-01-02 20:20:00,
2013-01-02 13:21:00,19.8,-2.3,17.72,ESE,122,2.7,2.7,37,0.00,,---,0.00,VWS V14.00,2013-01-02 20:21:00,
2013-01-02 13:22:00,19.8,-2.3,17.72,ESE,109,5.4,5.4,37,0.00,,---,0.00,VWS V14.00,2013-01-02 20:22:00,
2013-01-02 13:25:00,19.9,-1.6,17.72,East,90,4.0,5.8,38,0.00,,---,0.00,VWS V14.00,2013-01-02 20:25:00,
2013-01-02 13:26:00,19.9,-1.6,17.72,SE,130,4.9,5.8,38,0.00,,---,0.00,VWS V14.00,2013-01-02 20:26:00,
2013-01-02 13:27:00,20.1,-2.0,17.72,SE,142,7.6,7.6,37,0.00,,---,0.00,VWS V14.00,2013-01-02 20:27:00,
2013-01-02 13:30:00,20.3,-1.8,17.72,ESE,106,6.3,8.3,37,0.00,,---,0.00,VWS V14.00,2013-01-02 20:30:00,
2013-01-02 13:31:00,20.3,-1.8,17.72,ESE,113,5.8,6.3,37,0.00,,---,0.00,VWS V14.00,2013-01-02 20:31:00,
2013-01-02 13:32:00,20.3,-1.8,17.72,SSE,147,5.8,8.7,37,0.00,,---,0.00,VWS V14.00,2013-01-02 20:32:00,
2013-01-02 13:36:00,20.5,-1.6,17.72,ESE,107,7.2,7.2,37,0.00,,---,0.00,VWS V14.00,2013-01-02 20:36:00,
2013-01-02 13:37:00,20.5,-1.6,17.72,SE,142,7.2,7.6,37,0.00,,---,0.00,VWS V14.00,2013-01-02 20:37:00,
2013-01-02 13:41:00,20.5,-1.6,17.72,ESE,111,5.8,5.8,37,0.00,,---,0.00,VWS V14.00,2013-01-02 20:41:00,
2013-01-02 13:42:00,20.7,-1.5,17.72,ENE,75,3.1,3.1,37,0.00,,---,0.00,VWS V14.00,2013-01-02 20:42:00,
2013-01-02 13:46:00,20.7,-1.5,17.72,ESE,103,6.3,10.1,37,0.00,,---,0.00,VWS V14.00,2013-01-02 20:46:00,
2013-01-02 13:47:00,20.7,-1.5,17.72,East,99,5.8,7.6,37,0.00,,---,0.00,VWS V14.00,2013-01-02 20:47:00,
2013-01-02 13:51:00,20.7,-1.5,17.72,East,97,3.6,4.0,37,0.00,,---,0.00,VWS V14.00,2013-01-02 20:51:00,
2013-01-02 13:52:00,20.7,-1.5,17.72,SE,126,3.6,4.9,37,0.00,,---,0.00,VWS V14.00,2013-01-02 20:52:00,
2013-01-02 13:56:00,20.7,-2.1,17.72,ESE,108,7.6,7.6,36,0.00,,---,0.00,VWS V14.00,2013-01-02 20:56:00,
2013-01-02 13:57:00,20.7,-2.1,17.72,East,97,3.6,8.1,36,0.00,,---,0.00,VWS V14.00,2013-01-02 20:57:00,
2013-01-02 14:01:00,20.7,-2.1,17.72,ESE,117,4.9,7.6,36,0.00,,---,0.00,VWS V14.00,2013-01-02 21:01:00,
2013-01-02 14:02:00,20.5,-2.2,17.72,East,89,5.8,8.3,36,0.00,,---,0.00,VWS V14.00,2013-01-02 21:02:00,
2013-01-02 14:06:00,20.5,-2.2,17.72,East,98,7.6,7.6,36,0.00,,---,0.00,VWS V14.00,2013-01-02 21:06:00,
2013-01-02 14:07:00,20.5,-2.2,17.72,East,86,8.1,10.1,36,0.00,,---,0.00,VWS V14.00,2013-01-02 21:07:00,
2013-01-02 14:11:00,20.5,-2.2,17.72,SE,138,5.4,5.8,36,0.00,,---,0.00,VWS V14.00,2013-01-02 21:11:00,
2013-01-02 14:12:00,20.5,-2.2,17.72,South,179,4.0,4.0,36,0.00,,---,0.00,VWS V14.00,2013-01-02 21:12:00,
2013-01-02 14:13:00,20.5,-2.2,17.72,East,88,3.6,3.6,36,0.00,,---,0.00,VWS V14.00,2013-01-02 21:13:00,
2013-01-02 14:16:00,20.3,-2.4,17.72,SSW,197,3.1,4.0,36,0.00,,---,0.00,VWS V14.00,2013-01-02 21:16:00,
2013-01-02 14:17:00,20.3,-2.4,17.72,SSW,194,0.0,0.0,36,0.00,,---,0.00,VWS V14.00,2013-01-02 21:17:00,
2013-01-02 14:18:00,20.3,-2.4,17.72,ESE,102,4.0,5.8,36,0.00,,---,0.00,VWS V14.00,2013-01-02 21:18:00,
2013-01-02 14:22:00,20.3,-2.4,17.72,ESE,113,4.9,4.9,36,0.00,,---,0.00,VWS V14.00,2013-01-02 21:22:00,
2013-01-02 14:23:00,20.3,-2.4,17.72,ENE,58,7.6,7.6,36,0.00,,---,0.00,VWS V14.00,2013-01-02 21:23:00,
2013-01-02 14:27:00,20.3,-2.4,17.72,SE,129,4.0,6.3,36,0.00,,---,0.00,VWS V14.00,2013-01-02 21:27:00,
2013-01-02 14:28:00,20.3,-3.0,17.72,ESE,113,5.8,5.8,35,0.00,,---,0.00,VWS V14.00,2013-01-02 21:28:00,
2013-01-02 14:32:00,20.1,-3.1,17.72,South,176,2.7,3.1,35,0.00,,---,0.00,VWS V14.00,2013-01-02 21:32:00,
2013-01-02 14:33:00,20.1,-3.1,17.72,NE,56,5.8,6.3,35,0.00,,---,0.00,VWS V14.00,2013-01-02 21:33:00,
2013-01-02 14:37:00,20.1,-3.1,17.72,SE,138,7.6,7.6,35,0.00,,---,0.00,VWS V14.00,2013-01-02 21:37:00,
2013-01-02 14:38:00,20.1,-3.1,17.72,ESE,112,3.6,5.4,35,0.00,,---,0.00,VWS V14.00,2013-01-02 21:38:00,
2013-01-02 14:42:00,20.1,-3.1,17.72,SE,124,3.1,6.3,35,0.00,,---,0.00,VWS V14.00,2013-01-02 21:42:00,
2013-01-02 14:43:00,20.1,-3.1,17.72,SSE,160,6.3,6.3,35,0.00,,---,0.00,VWS V14.00,2013-01-02 21:43:00,
2013-01-02 14:47:00,20.1,-3.1,17.72,ENE,61,2.7,2.7,35,0.00,,---,0.00,VWS V14.00,2013-01-02 21:47:00,
2013-01-02 14:48:00,20.1,-3.1,17.72,NNE,31,2.7,2.7,35,0.00,,---,0.00,VWS V14.00,2013-01-02 21:48:00,
2013-01-02 14:49:00,20.1,-3.1,17.72,East,86,4.9,4.9,35,0.00,,---,0.00,VWS V14.00,2013-01-02 21:49:00,
2013-01-02 14:52:00,19.9,-3.3,17.72,NE,44,3.1,4.9,35,0.00,,---,0.00,VWS V14.00,2013-01-02 21:52:00,
2013-01-02 14:53:00,19.9,-3.3,17.72,ESE,120,6.3,6.3,35,0.00,,---,0.00,VWS V14.00,2013-01-02 21:53:00,
2013-01-02 14:54:00,19.9,-3.3,17.72,East,89,5.8,8.1,35,0.00,,---,0.00,VWS V14.00,2013-01-02 21:54:00,
2013-01-02 14:57:00,19.8,-3.5,17.72,ENE,71,4.0,6.3,35,0.00,,---,0.00,VWS V14.00,2013-01-02 21:57:00,
2013-01-02 14:58:00,19.8,-3.5,17.72,ENE,70,5.4,5.4,35,0.00,,---,0.00,VWS V14.00,2013-01-02 21:58:00,
2013-01-02 14:59:00,19.8,-3.5,17.72,ESE,115,5.4,5.4,35,0.00,,---,0.00,VWS V14.00,2013-01-02 21:59:00,
2013-01-02 15:02:00,19.8,-3.5,17.72,SE,145,8.1,8.1,35,0.00,,---,0.00,VWS V14.00,2013-01-02 22:02:00,
2013-01-02 15:03:00,19.6,-3.6,17.72,SW,216,6.3,6.3,35,0.00,,---,0.00,VWS V14.00,2013-01-02 22:03:00,
2013-01-02 15:04:00,19.6,-4.2,17.72,SE,129,4.0,6.3,34,0.00,,---,0.00,VWS V14.00,2013-01-02 22:04:00,
2013-01-02 15:07:00,19.6,-4.2,17.72,East,85,6.3,7.6,34,0.00,,---,0.00,VWS V14.00,2013-01-02 22:07:00,
2013-01-02 15:08:00,19.6,-4.2,17.72,East,79,2.7,4.9,34,0.00,,---,0.00,VWS V14.00,2013-01-02 22:08:00,
2013-01-02 15:09:00,19.6,-4.2,17.72,East,82,4.5,4.5,34,0.00,,---,0.00,VWS V14.00,2013-01-02 22:09:00,
2013-01-02 15:12:00,19.6,-4.2,17.72,ENE,73,0.0,0.0,34,0.00,,---,0.00,VWS V14.00,2013-01-02 22:12:00,
2013-01-02 15:13:00,19.6,-3.6,17.72,ENE,73,0.0,0.0,35,0.00,,---,0.00,VWS V14.00,2013-01-02 22:13:00,
2013-01-02 15:14:00,19.6,-3.6,17.72,East,92,4.0,4.0,35,0.00,,---,0.00,VWS V14.00,2013-01-02 22:14:00,
2013-01-02 15:17:00,19.6,-4.2,17.72,NNW,329,0.0,2.2,34,0.00,,---,0.00,VWS V14.00,2013-01-02 22:17:00,
2013-01-02 15:18:00,19.6,-4.2,17.72,NNW,329,0.0,0.0,34,0.00,,---,0.00,VWS V14.00,2013-01-02 22:18:00,
2013-01-02 15:19:00,19.6,-4.2,17.72,SE,125,5.4,5.4,34,0.00,,---,0.00,VWS V14.00,2013-01-02 22:19:00,
2013-01-02 15:23:00,19.6,-4.2,17.72,SSE,147,3.1,3.1,34,0.00,,---,0.00,VWS V14.00,2013-01-02 22:23:00,
2013-01-02 15:24:00,19.6,-4.2,17.72,SSE,156,0.0,0.0,34,0.00,,---,0.00,VWS V14.00,2013-01-02 22:24:00,
2013-01-02 15:28:00,19.6,-4.2,17.72,WSW,251,0.0,0.0,34,0.00,,---,0.00,VWS V14.00,2013-01-02 22:28:00,
2013-01-02 15:29:00,19.6,-4.2,17.72,WSW,251,0.0,0.0,34,0.00,,---,0.00,VWS V14.00,2013-01-02 22:29:00,
2013-01-02 15:33:00,19.6,-4.2,17.72,SW,230,0.0,2.7,34,0.00,,---,0.00,VWS V14.00,2013-01-02 22:33:00,
2013-01-02 15:34:00,19.4,-3.8,17.72,SW,230,0.0,2.7,35,0.00,,---,0.00,VWS V14.00,2013-01-02 22:34:00,
2013-01-02 15:38:00,19.4,-3.8,17.72,East,82,2.7,3.1,35,0.00,,---,0.00,VWS V14.00,2013-01-02 22:38:00,
2013-01-02 15:39:00,19.4,-3.8,17.72,East,87,5.4,5.4,35,0.00,,---,0.00,VWS V14.00,2013-01-02 22:39:00,
2013-01-02 15:43:00,19.4,-3.8,17.72,ESE,112,3.1,4.0,35,0.00,,---,0.00,VWS V14.00,2013-01-02 22:43:00,
2013-01-02 15:44:00,19.4,-3.8,17.72,ESE,119,3.1,3.1,35,0.00,,---,0.00,VWS V14.00,2013-01-02 22:44:00,
2013-01-02 15:48:00,19.2,-3.9,17.72,SE,144,2.7,5.4,35,0.00,,---,0.00,VWS V14.00,2013-01-02 22:48:00,
2013-01-02 15:49:00,19.2,-3.9,17.72,South,174,3.1,3.6,35,0.00,,---,0.00,VWS V14.00,2013-01-02 22:49:00,
2013-01-02 15:53:00,19.0,-4.7,17.72,South,182,3.1,8.3,34,0.00,,---,0.00,VWS V14.00,2013-01-02 22:53:00,
2013-01-02 15:54:00,19.0,-4.7,17.72,SSW,210,3.1,3.1,34,0.00,,---,0.00,VWS V14.00,2013-01-02 22:54:00,
2013-01-02 15:58:00,18.7,-5.0,17.72,East,96,4.9,5.4,34,0.00,,---,0.00,VWS V14.00,2013-01-02 22:58:00,
2013-01-02 15:59:00,18.7,-5.0,17.72,ESE,111,5.4,5.4,34,0.00,,---,0.00,VWS V14.00,2013-01-02 22:59:00,
2013-01-02 16:00:00,18.7,-5.0,17.72,East,97,5.4,5.4,34,0.00,,---,0.00,VWS V14.00,2013-01-02 23:00:00,
2013-01-02 16:03:00,18.5,-5.2,17.72,SSW,196,0.0,3.6,34,0.00,,---,0.00,VWS V14.00,2013-01-02 23:03:00,
2013-01-02 16:04:00,18.5,-5.2,17.72,SSW,198,0.0,0.0,34,0.00,,---,0.00,VWS V14.00,2013-01-02 23:04:00,
2013-01-02 16:05:00,18.5,-5.2,17.72,SSW,199,0.0,0.0,34,0.00,,---,0.00,VWS V14.00,2013-01-02 23:05:00,
2013-01-02 16:08:00,18.3,-5.3,17.72,East,99,0.0,0.0,34,0.00,,---,0.00,VWS V14.00,2013-01-02 23:08:00,
2013-01-02 16:09:00,18.3,-5.3,17.72,East,99,0.0,0.0,34,0.00,,---,0.00,VWS V14.00,2013-01-02 23:09:00,
2013-01-02 16:10:00,18.3,-5.3,17.72,East,99,0.0,0.0,34,0.00,,---,0.00,VWS V14.00,2013-01-02 23:10:00,
2013-01-02 16:13:00,18.1,-5.5,17.72,East,99,0.0,0.0,34,0.00,,---,0.00,VWS V14.00,2013-01-02 23:13:00,
2013-01-02 16:14:00,18.1,-5.5,17.72,East,99,0.0,0.0,34,0.00,,---,0.00,VWS V14.00,2013-01-02 23:14:00,
2013-01-02 16:15:00,18.1,-5.5,17.72,East,99,0.0,0.0,34,0.00,,---,0.00,VWS V14.00,2013-01-02 23:15:00,
2013-01-02 16:18:00,17.8,-5.8,17.72,ESE,119,0.0,2.7,34,0.00,,---,0.00,VWS V14.00,2013-01-02 23:18:00,
2013-01-02 16:19:00,17.8,-5.8,17.72,ESE,119,0.0,0.0,34,0.00,,---,0.00,VWS V14.00,2013-01-02 23:19:00,
2013-01-02 16:20:00,17.8,-5.8,17.72,ESE,119,0.0,0.0,34,0.00,,---,0.00,VWS V14.00,2013-01-02 23:20:00,
2013-01-02 16:23:00,17.4,-6.1,17.72,SE,139,0.0,0.0,34,0.00,,---,0.00,VWS V14.00,2013-01-02 23:23:00,
2013-01-02 16:24:00,17.4,-6.1,17.72,SE,144,0.0,0.0,34,0.00,,---,0.00,VWS V14.00,2013-01-02 23:24:00,
2013-01-02 16:25:00,17.2,-6.3,17.72,SSW,211,0.0,0.0,34,0.00,,---,0.00,VWS V14.00,2013-01-02 23:25:00,
2013-01-02 16:29:00,16.9,-6.6,17.72,SW,223,0.0,0.0,34,0.00,,---,0.00,VWS V14.00,2013-01-02 23:29:00,
2013-01-02 16:30:00,16.7,-6.8,17.72,SSW,204,0.0,4.0,34,0.00,,---,0.00,VWS V14.00,2013-01-02 23:30:00,
2013-01-02 16:34:00,16.5,-6.9,17.72,SW,233,0.0,2.7,34,0.00,,---,0.00,VWS V14.00,2013-01-02 23:34:00,
2013-01-02 16:35:00,16.2,-7.3,17.72,SE,134,4.9,4.9,34,0.00,,---,0.00,VWS V14.00,2013-01-02 23:35:00,
2013-01-02 16:39:00,15.8,-7.0,17.72,SSW,199,0.0,0.0,35,0.00,,---,0.00,VWS V14.00,2013-01-02 23:39:00,
2013-01-02 16:40:00,15.8,-7.0,17.72,SSW,199,0.0,0.0,35,0.00,,---,0.00,VWS V14.00,2013-01-02 23:40:00,
2013-01-02 16:44:00,15.4,-7.3,17.72,SSW,199,0.0,0.0,35,0.00,,---,0.00,VWS V14.00,2013-01-02 23:44:00,
2013-01-02 16:45:00,15.4,-7.3,17.72,SSW,199,0.0,0.0,35,0.00,,---,0.00,VWS V14.00,2013-01-02 23:45:00,
2013-01-02 16:49:00,15.3,-7.5,17.72,SSW,199,0.0,0.0,35,0.00,,---,0.00,VWS V14.00,2013-01-02 23:49:00,
2013-01-02 16:50:00,15.1,-7.6,17.72,SSW,199,0.0,0.0,35,0.00,,---,0.00,VWS V14.00,2013-01-02 23:50:00,
2013-01-02 16:54:00,14.9,-7.8,17.72,SSW,199,0.0,0.0,35,0.00,,---,0.00,VWS V14.00,2013-01-02 23:54:00,
2013-01-02 16:55:00,14.7,-8.0,17.72,SSW,199,0.0,0.0,35,0.00,,---,0.00,VWS V14.00,2013-01-02 23:55:00,
2013-01-02 16:59:00,14.5,-8.1,17.72,SSW,199,0.0,0.0,35,0.00,,---,0.00,VWS V14.00,2013-01-02 23:59:00,
2013-01-02 17:00:00,14.5,-8.1,17.72,SSW,199,0.0,0.0,35,0.00,,---,0.00,VWS V14.00,2013-01-03 00:00:00,
2013-01-02 17:04:00,14.2,-8.4,17.72,SSW,199,0.0,0.0,35,0.00,,---,0.00,VWS V14.00,2013-01-03 00:04:00,
2013-01-02 17:05:00,14.2,-8.4,17.72,SSW,199,0.0,0.0,35,0.00,,---,0.00,VWS V14.00,2013-01-03 00:05:00,
2013-01-02 17:06:00,14.0,-8.6,17.72,SSW,199,0.0,0.0,35,0.00,,---,0.00,VWS V14.00,2013-01-03 00:06:00,
2013-01-02 17:09:00,13.6,-8.9,17.72,SSW,199,0.0,0.0,35,0.00,,---,0.00,VWS V14.00,2013-01-03 00:09:00,
2013-01-02 17:10:00,13.6,-8.9,17.72,SSW,199,0.0,0.0,35,0.00,,---,0.00,VWS V14.00,2013-01-03 00:10:00,
2013-01-02 17:11:00,13.6,-8.9,17.72,SSW,199,0.0,0.0,35,0.00,,---,0.00,VWS V14.00,2013-01-03 00:11:00,
2013-01-02 17:14:00,13.3,-9.2,17.72,SSW,199,0.0,0.0,35,0.00,,---,0.00,VWS V14.00,2013-01-03 00:14:00,
2013-01-02 17:15:00,13.3,-9.2,17.72,SSW,199,0.0,0.0,35,0.00,,---,0.00,VWS V14.00,2013-01-03 00:15:00,
2013-01-02 17:16:00,13.3,-9.2,17.72,SSW,199,0.0,0.0,35,0.00,,---,0.00,VWS V14.00,2013-01-03 00:16:00,
2013-01-02 17:19:00,12.9,-9.6,17.72,SSW,199,0.0,0.0,35,0.00,,---,0.00,VWS V14.00,2013-01-03 00:19:00,
2013-01-02 17:20:00,12.9,-9.6,17.72,SSW,199,0.0,0.0,35,0.00,,---,0.00,VWS V14.00,2013-01-03 00:20:00,
2013-01-02 17:21:00,12.7,-9.7,17.72,SSW,199,0.0,0.0,35,0.00,,---,0.00,VWS V14.00,2013-01-03 00:21:00,
2013-01-02 17:24:00,12.6,-9.9,17.72,SSW,199,0.0,0.0,35,0.00,,---,0.00,VWS V14.00,2013-01-03 00:24:00,
2013-01-02 17:25:00,12.6,-9.9,17.72,SSW,199,0.0,0.0,35,0.00,,---,0.00,VWS V14.00,2013-01-03 00:25:00,
2013-01-02 17:26:00,12.4,-10.1,17.72,SSW,199,0.0,0.0,35,0.00,,---,0.00,VWS V14.00,2013-01-03 00:26:00,
2013-01-02 17:29:00,12.2,-10.2,17.72,SSW,199,0.0,0.0,35,0.00,,---,0.00,VWS V14.00,2013-01-03 00:29:00,
2013-01-02 17:30:00,12.0,-10.4,17.72,SSW,200,0.0,0.0,35,0.00,,---,0.00,VWS V14.00,2013-01-03 00:30:00,
2013-01-02 17:32:00,12.0,-10.4,17.72,SSW,200,0.0,0.0,35,0.00,,---,0.00,VWS V14.00,2013-01-03 00:32:00,
2013-01-02 17:35:00,11.7,-10.7,17.72,WNW,292,3.1,3.1,35,0.00,,---,0.00,VWS V14.00,2013-01-03 00:35:00,
2013-01-02 17:37:00,11.7,-10.7,17.72,WNW,292,0.0,0.0,35,0.00,,---,0.00,VWS V14.00,2013-01-03 00:37:00,
2013-01-02 17:40:00,11.3,-11.0,17.72,WNW,292,0.0,0.0,35,0.00,,---,0.00,VWS V14.00,2013-01-03 00:40:00,
2013-01-02 17:41:00,11.3,-11.0,17.72,WNW,292,0.0,0.0,35,0.00,,---,0.00,VWS V14.00,2013-01-03 00:41:00,
2013-01-02 17:42:00,11.3,-11.0,17.72,WNW,292,0.0,0.0,35,0.00,,---,0.00,VWS V14.00,2013-01-03 00:42:00,
2013-01-02 17:45:00,11.1,-11.2,17.72,WNW,292,0.0,0.0,35,0.00,,---,0.00,VWS V14.00,2013-01-03 00:45:00,
2013-01-02 17:46:00,10.9,-11.3,17.72,WNW,292,0.0,0.0,35,0.00,,---,0.00,VWS V14.00,2013-01-03 00:46:00,
2013-01-02 17:47:00,10.9,-11.3,17.72,WNW,292,0.0,0.0,35,0.00,,---,0.00,VWS V14.00,2013-01-03 00:47:00,
2013-01-02 17:50:00,10.6,-11.7,17.72,WNW,292,0.0,0.0,35,0.00,,---,0.00,VWS V14.00,2013-01-03 00:50:00,
2013-01-02 17:51:00,10.4,-11.8,17.72,WNW,292,0.0,0.0,35,0.00,,---,0.00,VWS V14.00,2013-01-03 00:51:00,
2013-01-02 17:52:00,10.4,-11.8,17.72,WNW,292,0.0,0.0,35,0.00,,---,0.00,VWS V14.00,2013-01-03 00:52:00,
2013-01-02 17:53:00,10.4,-11.8,17.72,WNW,292,0.0,0.0,35,0.00,,---,0.00,VWS V14.00,2013-01-03 00:53:00,
2013-01-02 17:55:00,10.2,-12.0,17.72,WNW,292,0.0,0.0,35,0.00,,---,0.00,VWS V14.00,2013-01-03 00:55:00,
2013-01-02 17:56:00,10.2,-12.0,17.72,WNW,292,0.0,0.0,35,0.00,,---,0.00,VWS V14.00,2013-01-03 00:56:00,
2013-01-02 17:57:00,10.2,-12.0,17.72,WNW,292,0.0,0.0,35,0.00,,---,0.00,VWS V14.00,2013-01-03 00:57:00,
2013-01-02 17:58:00,10.0,-12.1,17.72,WNW,292,0.0,0.0,35,0.00,,---,0.00,VWS V14.00,2013-01-03 00:58:00,
2013-01-02 18:00:00,10.0,-12.1,17.72,WNW,292,0.0,0.0,35,0.00,,---,0.00,VWS V14.00,2013-01-03 01:00:00,
2013-01-02 18:01:00,9.9,-12.3,17.72,WNW,292,0.0,0.0,35,0.00,,---,0.00,VWS V14.00,2013-01-03 01:01:00,
2013-01-02 18:02:00,9.9,-12.3,17.72,WNW,292,0.0,0.0,35,0.00,,---,0.00,VWS V14.00,2013-01-03 01:02:00,
2013-01-02 18:03:00,9.7,-12.5,17.72,WNW,292,0.0,0.0,35,0.00,,---,0.00,VWS V14.00,2013-01-03 01:03:00,
2013-01-02 18:05:00,9.7,-12.5,17.72,WNW,292,0.0,0.0,35,0.00,,---,0.00,VWS V14.00,2013-01-03 01:05:00,
2013-01-02 18:06:00,9.5,-12.6,17.72,WNW,292,0.0,0.0,35,0.00,,---,0.00,VWS V14.00,2013-01-03 01:06:00,
2013-01-02 18:07:00,9.5,-12.6,17.72,WNW,292,0.0,0.0,35,0.00,,---,0.00,VWS V14.00,2013-01-03 01:07:00,
2013-01-02 18:08:00,9.5,-12.6,17.72,WNW,292,0.0,0.0,35,0.00,,---,0.00,VWS V14.00,2013-01-03 01:08:00,
2013-01-02 18:11:00,9.3,-12.8,17.72,WNW,292,0.0,0.0,35,0.00,,---,0.00,VWS V14.00,2013-01-03 01:11:00,
2013-01-02 18:12:00,9.3,-12.8,17.72,WNW,292,0.0,0.0,35,0.00,,---,0.00,VWS V14.00,2013-01-03 01:12:00,
2013-01-02 18:13:00,9.1,-12.9,17.72,WNW,292,0.0,0.0,35,0.00,,---,0.00,VWS V14.00,2013-01-03 01:13:00,
2013-01-02 18:16:00,9.1,-12.9,17.72,WNW,292,0.0,0.0,35,0.00,,---,0.00,VWS V14.00,2013-01-03 01:16:00,
2013-01-02 18:17:00,9.0,-13.1,17.72,WNW,292,0.0,0.0,35,0.00,,---,0.00,VWS V14.00,2013-01-03 01:17:00,
2013-01-02 18:18:00,8.8,-13.3,17.72,WNW,292,0.0,0.0,35,0.00,,---,0.00,VWS V14.00,2013-01-03 01:18:00,
2013-01-02 18:21:00,8.6,-13.4,17.72,WNW,292,0.0,0.0,35,0.00,,---,0.00,VWS V14.00,2013-01-03 01:21:00,
2013-01-02 18:22:00,8.6,-13.4,17.72,WNW,292,0.0,0.0,35,0.00,,---,0.00,VWS V14.00,2013-01-03 01:22:00,
2013-01-02 18:23:00,8.6,-13.4,17.72,WNW,293,0.0,0.0,35,0.00,,---,0.00,VWS V14.00,2013-01-03 01:23:00,
2013-01-02 18:26:00,8.4,-13.6,17.72,WNW,292,0.0,0.0,35,0.00,,---,0.00,VWS V14.00,2013-01-03 01:26:00,
2013-01-02 18:27:00,8.4,-13.6,17.72,WNW,292,0.0,0.0,35,0.00,,---,0.00,VWS V14.00,2013-01-03 01:27:00,
2013-01-02 18:28:00,8.4,-13.6,17.72,WNW,292,0.0,0.0,35,0.00,,---,0.00,VWS V14.00,2013-01-03 01:28:00,
2013-01-02 18:31:00,8.1,-13.9,17.72,WNW,292,0.0,0.0,35,0.00,,---,0.00,VWS V14.00,2013-01-03 01:31:00,
2013-01-02 18:32:00,8.1,-13.9,17.72,WNW,293,0.0,0.0,35,0.00,,---,0.00,VWS V14.00,2013-01-03 01:32:00,
2013-01-02 18:33:00,8.1,-13.9,17.72,WNW,293,0.0,0.0,35,0.00,,---,0.00,VWS V14.00,2013-01-03 01:33:00,
2013-01-02 18:36:00,7.9,-14.1,17.72,WNW,292,0.0,0.0,35,0.00,,---,0.00,VWS V14.00,2013-01-03 01:36:00,
2013-01-02 18:37:00,7.9,-14.1,17.72,WNW,292,0.0,0.0,35,0.00,,---,0.00,VWS V14.00,2013-01-03 01:37:00,
2013-01-02 18:38:00,7.7,-14.2,17.72,WNW,292,0.0,0.0,35,0.00,,---,0.00,VWS V14.00,2013-01-03 01:38:00,
2013-01-02 18:41:00,7.5,-14.4,17.72,WNW,293,0.0,0.0,35,0.00,,---,0.00,VWS V14.00,2013-01-03 01:41:00,
2013-01-02 18:43:00,7.5,-14.4,17.72,WNW,293,0.0,0.0,35,0.00,,---,0.00,VWS V14.00,2013-01-03 01:43:00,
2013-01-02 18:44:00,7.3,-14.6,17.72,WNW,293,0.0,0.0,35,0.00,,---,0.00,VWS V14.00,2013-01-03 01:44:00,
2013-01-02 18:46:00,7.2,-14.7,17.72,WNW,292,0.0,0.0,35,0.00,,---,0.00,VWS V14.00,2013-01-03 01:46:00,
2013-01-02 18:48:00,7.2,-14.7,17.72,WNW,292,0.0,0.0,35,0.00,,---,0.00,VWS V14.00,2013-01-03 01:48:00,
2013-01-02 18:49:00,7.2,-14.7,17.72,WNW,292,0.0,0.0,35,0.00,,---,0.00,VWS V14.00,2013-01-03 01:49:00,
2013-01-02 18:51:00,7.0,-14.9,17.72,WNW,287,0.0,0.0,35,0.00,,---,0.00,VWS V14.00,2013-01-03 01:51:00,
2013-01-02 18:53:00,7.0,-14.9,17.72,WNW,293,0.0,0.0,35,0.00,,---,0.00,VWS V14.00,2013-01-03 01:53:00,
2013-01-02 18:54:00,6.8,-15.1,17.72,WNW,293,0.0,0.0,35,0.00,,---,0.00,VWS V14.00,2013-01-03 01:54:00,
2013-01-02 18:56:00,6.8,-15.1,17.72,WNW,292,0.0,0.0,35,0.00,,---,0.00,VWS V14.00,2013-01-03 01:56:00,
2013-01-02 18:57:00,6.8,-15.1,17.72,WNW,293,0.0,0.0,35,0.00,,---,0.00,VWS V14.00,2013-01-03 01:57:00,
2013-01-02 18:58:00,6.6,-15.2,17.72,WNW,292,0.0,0.0,35,0.00,,---,0.00,VWS V14.00,2013-01-03 01:58:00,
2013-01-02 18:59:00,6.6,-15.2,17.72,WNW,292,0.0,0.0,35,0.00,,---,0.00,VWS V14.00,2013-01-03 01:59:00,
2013-01-02 19:01:00,6.4,-15.4,17.72,WNW,293,0.0,0.0,35,0.00,,---,0.00,VWS V14.00,2013-01-03 02:01:00,
2013-01-02 19:02:00,6.4,-15.4,17.72,WNW,293,0.0,0.0,35,0.00,,---,0.00,VWS V14.00,2013-01-03 02:02:00,
2013-01-02 19:03:00,6.4,-15.4,17.72,WNW,293,0.0,0.0,35,0.00,,---,0.00,VWS V14.00,2013-01-03 02:03:00,
2013-01-02 19:04:00,6.4,-15.4,17.72,WNW,293,0.0,0.0,35,0.00,,---,0.00,VWS V14.00,2013-01-03 02:04:00,
2013-01-02 19:07:00,6.4,-15.4,17.72,WNW,293,0.0,0.0,35,0.00,,---,0.00,VWS V14.00,2013-01-03 02:07:00,
2013-01-02 19:09:00,6.3,-15.5,17.72,WNW,293,0.0,0.0,35,0.00,,---,0.00,VWS V14.00,2013-01-03 02:09:00,
2013-01-02 19:12:00,6.1,-15.7,17.72,WNW,293,0.0,0.0,35,0.00,,---,0.00,VWS V14.00,2013-01-03 02:12:00,
2013-01-02 19:14:00,6.1,-15.7,17.72,WNW,292,0.0,0.0,35,0.00,,---,0.00,VWS V14.00,2013-01-03 02:14:00,
2013-01-02 19:17:00,5.9,-15.9,17.72,WNW,292,0.0,0.0,35,0.00,,---,0.00,VWS V14.00,2013-01-03 02:17:00,
2013-01-02 19:19:00,5.9,-15.9,17.72,WNW,293,0.0,2.2,35,0.00,,---,0.00,VWS V14.00,2013-01-03 02:19:00,
2013-01-02 19:22:00,5.7,-16.0,17.72,WNW,293,0.0,0.0,35,0.00,,---,0.00,VWS V14.00,2013-01-03 02:22:00,
2013-01-02 19:24:00,5.7,-16.0,17.72,WNW,293,0.0,0.0,35,0.00,,---,0.00,VWS V14.00,2013-01-03 02:24:00,
2013-01-02 19:27:00,5.5,-16.2,17.72,WNW,293,0.0,0.0,35,0.00,,---,0.00,VWS V14.00,2013-01-03 02:27:00,
2013-01-02 19:28:00,5.5,-16.2,17.72,WNW,293,0.0,0.0,35,0.00,,---,0.00,VWS V14.00,2013-01-03 02:28:00,
2013-01-02 19:29:00,5.4,-16.3,17.72,WNW,293,0.0,0.0,35,0.00,,---,0.00,VWS V14.00,2013-01-03 02:29:00,
2013-01-02 19:32:00,5.4,-16.3,17.72,WNW,292,0.0,0.0,35,0.00,,---,0.00,VWS V14.00,2013-01-03 02:32:00,
2013-01-02 19:33:00,5.4,-16.3,17.72,WNW,293,0.0,0.0,35,0.00,,---,0.00,VWS V14.00,2013-01-03 02:33:00,
2013-01-02 19:34:00,5.2,-16.5,17.72,WNW,293,0.0,0.0,35,0.00,,---,0.00,VWS V14.00,2013-01-03 02:34:00,
2013-01-02 19:37:00,5.2,-16.5,17.72,WNW,293,0.0,0.0,35,0.00,,---,0.00,VWS V14.00,2013-01-03 02:37:00,
2013-01-02 19:38:00,5.2,-16.5,17.72,WNW,293,0.0,0.0,35,0.00,,---,0.00,VWS V14.00,2013-01-03 02:38:00,
2013-01-02 19:39:00,5.0,-16.7,17.72,WNW,284,0.0,0.0,35,0.00,,---,0.00,VWS V14.00,2013-01-03 02:39:00,
2013-01-02 19:40:00,5.0,-16.7,17.72,WNW,287,0.0,0.0,35,0.00,,---,0.00,VWS V14.00,2013-01-03 02:40:00,
2013-01-02 19:42:00,5.0,-16.7,17.72,WNW,293,0.0,0.0,35,0.00,,---,0.00,VWS V14.00,2013-01-03 02:42:00,
2013-01-02 19:43:00,5.0,-16.7,17.72,WNW,292,0.0,0.0,35,0.00,,---,0.00,VWS V14.00,2013-01-03 02:43:00,
2013-01-02 19:44:00,5.0,-16.7,17.72,West,276,0.0,0.0,35,0.00,,---,0.00,VWS V14.00,2013-01-03 02:44:00,
2013-01-02 19:45:00,5.0,-16.7,17.72,WNW,288,0.0,0.0,35,0.00,,---,0.00,VWS V14.00,2013-01-03 02:45:00,
2013-01-02 19:48:00,4.8,-16.8,17.72,WNW,288,0.0,0.0,35,0.00,,---,0.00,VWS V14.00,2013-01-03 02:48:00,
2013-01-02 19:49:00,4.8,-16.8,17.72,WNW,288,0.0,0.0,35,0.00,,---,0.00,VWS V14.00,2013-01-03 02:49:00,
2013-01-02 19:50:00,4.8,-16.8,17.72,WNW,289,0.0,0.0,35,0.00,,---,0.00,VWS V14.00,2013-01-03 02:50:00,
2013-01-02 19:53:00,4.6,-17.0,17.72,West,276,0.0,0.0,35,0.00,,---,0.00,VWS V14.00,2013-01-03 02:53:00,
2013-01-02 19:54:00,4.6,-17.0,17.72,WNW,289,0.0,0.0,35,0.00,,---,0.00,VWS V14.00,2013-01-03 02:54:00,
2013-01-02 19:55:00,4.6,-17.0,17.72,WNW,289,0.0,0.0,35,0.00,,---,0.00,VWS V14.00,2013-01-03 02:55:00,
2013-01-02 19:58:00,4.6,-17.0,17.72,WNW,289,0.0,0.0,35,0.00,,---,0.00,VWS V14.00,2013-01-03 02:58:00,
2013-01-02 20:00:00,4.5,-17.1,17.72,WNW,289,0.0,0.0,35,0.00,,---,0.00,VWS V14.00,2013-01-03 03:00:00,
2013-01-02 20:03:00,4.5,-17.1,17.72,WNW,291,0.0,0.0,35,0.00,,---,0.00,VWS V14.00,2013-01-03 03:03:00,
2013-01-02 20:05:00,4.5,-17.1,17.72,WNW,291,0.0,0.0,35,0.00,,---,0.00,VWS V14.00,2013-01-03 03:05:00,
2013-01-02 20:08:00,4.5,-17.1,17.72,WNW,291,0.0,0.0,35,0.00,,---,0.00,VWS V14.00,2013-01-03 03:08:00,
2013-01-02 20:10:00,4.5,-17.1,17.72,WNW,290,0.0,0.0,35,0.00,,---,0.00,VWS V14.00,2013-01-03 03:10:00,
2013-01-02 20:13:00,4.5,-17.1,17.72,WNW,290,0.0,0.0,35,0.00,,---,0.00,VWS V14.00,2013-01-03 03:13:00,
2013-01-02 20:15:00,4.5,-17.1,17.72,WNW,290,0.0,0.0,35,0.00,,---,0.00,VWS V14.00,2013-01-03 03:15:00,
2013-01-02 20:16:00,4.5,-17.1,17.72,WNW,286,0.0,0.0,35,0.00,,---,0.00,VWS V14.00,2013-01-03 03:16:00,
2013-01-02 20:18:00,4.3,-17.3,17.72,WNW,286,0.0,0.0,35,0.00,,---,0.00,VWS V14.00,2013-01-03 03:18:00,
2013-01-02 20:20:00,4.3,-17.3,17.72,WNW,286,0.0,0.0,35,0.00,,---,0.00,VWS V14.00,2013-01-03 03:20:00,
2013-01-02 20:21:00,4.3,-17.3,17.72,WNW,286,0.0,0.0,35,0.00,,---,0.00,VWS V14.00,2013-01-03 03:21:00,
2013-01-02 20:23:00,4.3,-17.3,17.72,WNW,286,0.0,0.0,35,0.00,,---,0.00,VWS V14.00,2013-01-03 03:23:00,
2013-01-02 20:24:00,4.3,-17.3,17.72,WNW,284,0.0,0.0,35,0.00,,---,0.00,VWS V14.00,2013-01-03 03:24:00,
2013-01-02 20:25:00,4.3,-17.3,17.72,WNW,286,0.0,0.0,35,0.00,,---,0.00,VWS V14.00,2013-01-03 03:25:00,
2013-01-02 20:26:00,4.3,-17.3,17.72,WNW,287,0.0,0.0,35,0.00,,---,0.00,VWS V14.00,2013-01-03 03:26:00,
2013-01-02 20:28:00,4.3,-17.3,17.72,WNW,286,0.0,0.0,35,0.00,,---,0.00,VWS V14.00,2013-01-03 03:28:00,
2013-01-02 20:29:00,4.3,-17.3,17.72,WNW,282,0.0,0.0,35,0.00,,---,0.00,VWS V14.00,2013-01-03 03:29:00,
2013-01-02 20:30:00,4.1,-17.5,17.72,WNW,286,0.0,0.0,35,0.00,,---,0.00,VWS V14.00,2013-01-03 03:30:00,
2013-01-02 20:32:00,4.1,-17.5,17.72,WNW,286,0.0,0.0,35,0.00,,---,0.00,VWS V14.00,2013-01-03 03:32:00,
2013-01-02 20:34:00,4.1,-17.5,17.72,WNW,286,0.0,0.0,35,0.00,,---,0.00,VWS V14.00,2013-01-03 03:34:00,
2013-01-02 20:36:00,4.1,-17.5,17.72,WNW,286,0.0,0.0,35,0.00,,---,0.00,VWS V14.00,2013-01-03 03:36:00,
2013-01-02 20:37:00,4.1,-17.5,17.72,WNW,286,0.0,0.0,35,0.00,,---,0.00,VWS V14.00,2013-01-03 03:37:00,
2013-01-02 20:39:00,4.1,-17.5,17.72,WNW,287,0.0,0.0,35,0.00,,---,0.00,VWS V14.00,2013-01-03 03:39:00,
2013-01-02 20:40:00,4.1,-17.5,17.72,WNW,287,0.0,0.0,35,0.00,,---,0.00,VWS V14.00,2013-01-03 03:40:00,
2013-01-02 20:42:00,4.1,-17.5,17.72,WNW,286,0.0,0.0,35,0.00,,---,0.00,VWS V14.00,2013-01-03 03:42:00,
2013-01-02 20:43:00,3.9,-17.6,17.72,WNW,286,0.0,0.0,35,0.00,,---,0.00,VWS V14.00,2013-01-03 03:43:00,
2013-01-02 20:44:00,3.9,-17.6,17.72,WNW,286,0.0,0.0,35,0.00,,---,0.00,VWS V14.00,2013-01-03 03:44:00,
2013-01-02 20:46:00,3.9,-17.6,17.72,WNW,286,0.0,0.0,35,0.00,,---,0.00,VWS V14.00,2013-01-03 03:46:00,
2013-01-02 20:47:00,3.9,-17.6,17.72,WNW,286,0.0,0.0,35,0.00,,---,0.00,VWS V14.00,2013-01-03 03:47:00,
2013-01-02 20:48:00,3.7,-17.8,17.72,WNW,284,0.0,0.0,35,0.00,,---,0.00,VWS V14.00,2013-01-03 03:48:00,
2013-01-02 20:49:00,3.7,-17.8,17.72,WNW,286,0.0,0.0,35,0.00,,---,0.00,VWS V14.00,2013-01-03 03:49:00,
2013-01-02 20:51:00,3.7,-17.8,17.72,WNW,286,0.0,0.0,35,0.00,,---,0.00,VWS V14.00,2013-01-03 03:51:00,
2013-01-02 20:52:00,3.7,-17.8,17.72,WNW,286,0.0,0.0,35,0.00,,---,0.00,VWS V14.00,2013-01-03 03:52:00,
2013-01-02 20:53:00,3.7,-17.8,17.72,WNW,286,3.1,3.1,35,0.00,,---,0.00,VWS V14.00,2013-01-03 03:53:00,
2013-01-02 20:54:00,3.7,-17.8,17.72,WNW,286,0.0,0.0,35,0.00,,---,0.00,VWS V14.00,2013-01-03 03:54:00,
2013-01-02 20:56:00,3.7,-17.8,17.72,West,276,0.0,0.0,35,0.00,,---,0.00,VWS V14.00,2013-01-03 03:56:00,
2013-01-02 20:57:00,3.7,-17.8,17.72,WNW,284,0.0,0.0,35,0.00,,---,0.00,VWS V14.00,2013-01-03 03:57:00,
2013-01-02 20:58:00,3.7,-17.8,17.72,West,276,0.0,0.0,35,0.00,,---,0.00,VWS V14.00,2013-01-03 03:58:00,
2013-01-02 21:00:00,3.7,-17.8,17.72,West,280,0.0,0.0,35,0.00,,---,0.00,VWS V14.00,2013-01-03 04:00:00,
2013-01-02 21:01:00,3.7,-17.8,17.72,WNW,287,0.0,0.0,35,0.00,,---,0.00,VWS V14.00,2013-01-03 04:01:00,
2013-01-02 21:02:00,3.6,-18.0,17.72,WNW,286,0.0,0.0,35,0.00,,---,0.00,VWS V14.00,2013-01-03 04:02:00,
2013-01-02 21:04:00,3.6,-18.0,17.72,WSW,253,2.7,2.7,35,0.00,,---,0.00,VWS V14.00,2013-01-03 04:04:00,
2013-01-02 21:05:00,3.6,-18.0,17.72,WSW,251,0.0,0.0,35,0.00,,---,0.00,VWS V14.00,2013-01-03 04:05:00,
2013-01-02 21:06:00,3.6,-18.0,17.72,WSW,253,0.0,0.0,35,0.00,,---,0.00,VWS V14.00,2013-01-03 04:06:00,
2013-01-02 21:07:00,3.4,-18.1,17.72,WSW,253,0.0,0.0,35,0.00,,---,0.00,VWS V14.00,2013-01-03 04:07:00,
2013-01-02 21:09:00,3.4,-18.1,17.72,WSW,240,0.0,0.0,35,0.00,,---,0.00,VWS V14.00,2013-01-03 04:09:00,
2013-01-02 21:10:00,3.4,-18.1,17.72,SW,218,0.0,0.0,35,0.00,,---,0.00,VWS V14.00,2013-01-03 04:10:00,
2013-01-02 21:11:00,3.4,-18.1,17.72,SSW,206,0.0,0.0,35,0.00,,---,0.00,VWS V14.00,2013-01-03 04:11:00,
2013-01-02 21:12:00,3.2,-18.3,17.72,SSW,199,0.0,0.0,35,0.00,,---,0.00,VWS V14.00,2013-01-03 04:12:00,
2013-01-02 21:14:00,3.2,-18.3,17.72,SSW,192,0.0,0.0,35,0.00,,---,0.00,VWS V14.00,2013-01-03 04:14:00,
2013-01-02 21:15:00,3.2,-18.3,17.72,SSE,147,3.6,3.6,35,0.00,,---,0.00,VWS V14.00,2013-01-03 04:15:00,
2013-01-02 21:16:00,3.2,-18.3,17.72,SE,136,0.0,0.0,35,0.00,,---,0.00,VWS V14.00,2013-01-03 04:16:00,
2013-01-02 21:17:00,3.2,-18.3,17.72,SE,136,0.0,0.0,35,0.00,,---,0.00,VWS V14.00,2013-01-03 04:17:00,
2013-01-02 21:19:00,3.2,-18.3,17.72,SE,125,2.2,2.2,35,0.00,,---,0.00,VWS V14.00,2013-01-03 04:19:00,
2013-01-02 21:20:00,3.2,-18.3,17.72,SE,125,0.0,0.0,35,0.00,,---,0.00,VWS V14.00,2013-01-03 04:20:00,
2013-01-02 21:21:00,3.2,-18.3,17.72,SE,125,0.0,0.0,35,0.00,,---,0.00,VWS V14.00,2013-01-03 04:21:00,
2013-01-02 21:22:00,3.2,-18.3,17.72,SE,125,0.0,0.0,35,0.00,,---,0.00,VWS V14.00,2013-01-03 04:22:00,
2013-01-02 21:24:00,3.2,-18.3,17.72,SE,124,0.0,2.2,35,0.00,,---,0.00,VWS V14.00,2013-01-03 04:24:00,
2013-01-02 21:25:00,3.0,-18.4,17.72,ESE,122,0.0,0.0,35,0.00,,---,0.00,VWS V14.00,2013-01-03 04:25:00,
2013-01-02 21:26:00,3.0,-18.4,17.72,ESE,121,0.0,0.0,35,0.00,,---,0.00,VWS V14.00,2013-01-03 04:26:00,
2013-01-02 21:27:00,3.0,-18.4,17.72,East,82,4.0,4.0,35,0.00,,---,0.00,VWS V14.00,2013-01-03 04:27:00,
2013-01-02 21:29:00,3.0,-18.4,17.72,East,82,0.0,0.0,35,0.00,,---,0.00,VWS V14.00,2013-01-03 04:29:00,
2013-01-02 21:30:00,3.0,-18.4,17.72,East,81,0.0,0.0,35,0.00,,---,0.00,VWS V14.00,2013-01-03 04:30:00,
2013-01-02 21:32:00,2.8,-18.6,17.72,East,82,0.0,0.0,35,0.00,,---,0.00,VWS V14.00,2013-01-03 04:32:00,
2013-01-02 21:34:00,2.8,-18.6,17.72,East,82,0.0,0.0,35,0.00,,---,0.00,VWS V14.00,2013-01-03 04:34:00,
2013-01-02 21:35:00,2.8,-18.6,17.72,East,82,0.0,0.0,35,0.00,,---,0.00,VWS V14.00,2013-01-03 04:35:00,
2013-01-02 21:37:00,2.8,-18.6,17.72,East,82,0.0,0.0,35,0.00,,---,0.00,VWS V14.00,2013-01-03 04:37:00,
2013-01-02 21:39:00,2.8,-18.6,17.72,East,82,0.0,0.0,35,0.00,,---,0.00,VWS V14.00,2013-01-03 04:39:00,
2013-01-02 21:40:00,2.8,-18.6,17.72,East,79,0.0,0.0,35,0.00,,---,0.00,VWS V14.00,2013-01-03 04:40:00,
2013-01-02 21:42:00,2.7,-18.8,17.72,East,82,0.0,0.0,35,0.00,,---,0.00,VWS V14.00,2013-01-03 04:42:00,
2013-01-02 21:44:00,2.7,-18.8,17.72,East,82,0.0,0.0,35,0.00,,---,0.00,VWS V14.00,2013-01-03 04:44:00,
2013-01-02 21:45:00,2.7,-18.8,17.72,East,82,0.0,0.0,35,0.00,,---,0.00,VWS V14.00,2013-01-03 04:45:00,
2013-01-02 21:47:00,2.5,-18.9,17.72,East,82,0.0,0.0,35,0.00,,---,0.00,VWS V14.00,2013-01-03 04:47:00,
2013-01-02 21:49:00,2.5,-18.9,17.72,East,82,0.0,0.0,35,0.00,,---,0.00,VWS V14.00,2013-01-03 04:49:00,
2013-01-02 21:50:00,2.5,-18.9,17.72,East,82,0.0,0.0,35,0.00,,---,0.00,VWS V14.00,2013-01-03 04:50:00,
2013-01-02 21:52:00,2.5,-18.9,17.72,East,83,0.0,0.0,35,0.00,,---,0.00,VWS V14.00,2013-01-03 04:52:00,
2013-01-02 21:54:00,2.5,-18.9,17.72,East,81,0.0,0.0,35,0.00,,---,0.00,VWS V14.00,2013-01-03 04:54:00,
2013-01-02 21:55:00,2.5,-18.9,17.72,East,82,0.0,0.0,35,0.00,,---,0.00,VWS V14.00,2013-01-03 04:55:00,
2013-01-02 21:57:00,2.5,-18.9,17.72,East,82,0.0,0.0,35,0.00,,---,0.00,VWS V14.00,2013-01-03 04:57:00,
2013-01-02 21:59:00,2.3,-19.1,17.72,East,82,0.0,0.0,35,0.00,,---,0.00,VWS V14.00,2013-01-03 04:59:00,
2013-01-02 22:01:00,2.3,-19.1,17.72,East,83,0.0,0.0,35,0.00,,---,0.00,VWS V14.00,2013-01-03 05:01:00,
2013-01-02 22:02:00,2.3,-19.1,17.72,East,82,0.0,0.0,35,0.00,,---,0.00,VWS V14.00,2013-01-03 05:02:00,
2013-01-02 22:06:00,2.1,-19.2,17.72,East,83,0.0,0.0,35,0.00,,---,0.00,VWS V14.00,2013-01-03 05:06:00,
2013-01-02 22:07:00,2.1,-19.2,17.72,East,82,0.0,0.0,35,0.00,,---,0.00,VWS V14.00,2013-01-03 05:07:00,
2013-01-02 22:11:00,1.9,-19.4,17.72,East,82,0.0,0.0,35,0.00,,---,0.00,VWS V14.00,2013-01-03 05:11:00,
2013-01-02 22:12:00,1.9,-19.4,17.72,East,82,0.0,0.0,35,0.00,,---,0.00,VWS V14.00,2013-01-03 05:12:00,
2013-01-02 22:16:00,1.9,-19.4,17.72,East,82,0.0,0.0,35,0.00,,---,0.00,VWS V14.00,2013-01-03 05:16:00,
2013-01-02 22:17:00,1.9,-19.4,17.72,East,83,0.0,0.0,35,0.00,,---,0.00,VWS V14.00,2013-01-03 05:17:00,
2013-01-02 22:18:00,1.9,-19.4,17.72,East,82,0.0,0.0,35,0.00,,---,0.00,VWS V14.00,2013-01-03 05:18:00,
2013-01-02 22:21:00,1.8,-19.6,17.72,East,83,0.0,0.0,35,0.00,,---,0.00,VWS V14.00,2013-01-03 05:21:00,
2013-01-02 22:22:00,1.8,-19.6,17.72,East,82,0.0,0.0,35,0.00,,---,0.00,VWS V14.00,2013-01-03 05:22:00,
2013-01-02 22:23:00,1.8,-19.6,17.72,East,82,0.0,0.0,35,0.00,,---,0.00,VWS V14.00,2013-01-03 05:23:00,
2013-01-02 22:26:00,1.8,-19.6,17.72,East,83,0.0,0.0,35,0.00,,---,0.00,VWS V14.00,2013-01-03 05:26:00,
2013-01-02 22:27:00,1.8,-19.6,17.72,East,83,0.0,0.0,35,0.00,,---,0.00,VWS V14.00,2013-01-03 05:27:00,
2013-01-02 22:28:00,1.6,-19.7,17.72,East,79,0.0,0.0,35,0.00,,---,0.00,VWS V14.00,2013-01-03 05:28:00,
2013-01-02 22:35:00,1.6,-19.7,17.72,East,83,0.0,0.0,35,0.00,,---,0.00,VWS V14.00,2013-01-03 05:35:00,
2013-01-02 22:36:00,1.6,-19.7,17.72,East,83,0.0,0.0,35,0.00,,---,0.00,VWS V14.00,2013-01-03 05:36:00,
2013-01-02 22:40:00,1.6,-19.7,17.72,East,82,0.0,0.0,35,0.00,,---,0.00,VWS V14.00,2013-01-03 05:40:00,
2013-01-02 22:41:00,1.6,-19.7,17.72,East,81,0.0,0.0,35,0.00,,---,0.00,VWS V14.00,2013-01-03 05:41:00,
2013-01-02 22:45:00,1.6,-19.7,17.72,East,82,0.0,0.0,35,0.00,,---,0.00,VWS V14.00,2013-01-03 05:45:00,
2013-01-02 22:46:00,1.6,-19.7,17.72,East,82,0.0,0.0,35,0.00,,---,0.00,VWS V14.00,2013-01-03 05:46:00,
2013-01-02 22:50:00,1.4,-19.9,17.72,East,83,0.0,0.0,35,0.00,,---,0.00,VWS V14.00,2013-01-03 05:50:00,
2013-01-02 22:51:00,1.4,-19.9,17.72,East,83,0.0,0.0,35,0.00,,---,0.00,VWS V14.00,2013-01-03 05:51:00,
2013-01-02 22:56:00,1.2,-20.0,17.72,East,82,0.0,0.0,35,0.00,,---,0.00,VWS V14.00,2013-01-03 05:56:00,
2013-01-02 23:01:00,1.2,-20.0,17.72,East,90,0.0,0.0,35,0.00,,---,0.00,VWS V14.00,2013-01-03 06:01:00,
2013-01-02 23:06:00,1.2,-20.0,17.72,East,90,0.0,0.0,35,0.00,,---,0.00,VWS V14.00,2013-01-03 06:06:00,
2013-01-02 23:11:00,1.2,-20.0,17.72,East,90,0.0,0.0,35,0.00,,---,0.00,VWS V14.00,2013-01-03 06:11:00,
2013-01-02 23:12:00,1.2,-20.0,17.72,East,90,0.0,0.0,35,0.00,,---,0.00,VWS V14.00,2013-01-03 06:12:00,
2013-01-02 23:16:00,1.2,-20.0,17.72,East,87,0.0,0.0,35,0.00,,---,0.00,VWS V14.00,2013-01-03 06:16:00,
2013-01-02 23:17:00,1.2,-20.0,17.72,East,90,0.0,0.0,35,0.00,,---,0.00,VWS V14.00,2013-01-03 06:17:00,
2013-01-02 23:21:00,1.2,-20.0,17.72,East,90,0.0,0.0,35,0.00,,---,0.00,VWS V14.00,2013-01-03 06:21:00,
2013-01-02 23:22:00,1.2,-20.0,17.72,East,92,2.7,2.7,35,0.00,,---,0.00,VWS V14.00,2013-01-03 06:22:00,
2013-01-02 23:26:00,1.0,-20.2,17.72,East,93,0.0,0.0,35,0.00,,---,0.00,VWS V14.00,2013-01-03 06:26:00,
2013-01-02 23:27:00,1.0,-20.2,17.72,East,92,0.0,0.0,35,0.00,,---,0.00,VWS V14.00,2013-01-03 06:27:00,
2013-01-02 23:31:00,1.0,-20.2,17.72,East,93,0.0,0.0,35,0.00,,---,0.00,VWS V14.00,2013-01-03 06:31:00,
2013-01-02 23:32:00,1.0,-20.2,17.72,East,92,0.0,0.0,35,0.00,,---,0.00,VWS V14.00,2013-01-03 06:32:00,
2013-01-02 23:33:00,1.0,-20.2,17.72,East,92,0.0,0.0,35,0.00,,---,0.00,VWS V14.00,2013-01-03 06:33:00,
2013-01-02 23:36:00,1.0,-20.2,17.72,East,92,0.0,0.0,35,0.00,,---,0.00,VWS V14.00,2013-01-03 06:36:00,
2013-01-02 23:37:00,1.0,-20.2,17.72,East,92,0.0,0.0,35,0.00,,---,0.00,VWS V14.00,2013-01-03 06:37:00,
2013-01-02 23:41:00,1.0,-20.2,17.72,East,92,0.0,0.0,35,0.00,,---,0.00,VWS V14.00,2013-01-03 06:41:00,
2013-01-02 23:42:00,1.0,-20.2,17.72,East,92,0.0,0.0,35,0.00,,---,0.00,VWS V14.00,2013-01-03 06:42:00,
2013-01-02 23:43:00,1.0,-20.2,17.72,East,92,0.0,0.0,35,0.00,,---,0.00,VWS V14.00,2013-01-03 06:43:00,
2013-01-02 23:47:00,0.9,-20.4,17.72,East,91,0.0,0.0,35,0.00,,---,0.00,VWS V14.00,2013-01-03 06:47:00,
2013-01-02 23:48:00,0.9,-20.4,17.72,East,91,0.0,0.0,35,0.00,,---,0.00,VWS V14.00,2013-01-03 06:48:00,
2013-01-02 23:52:00,0.9,-20.4,17.72,East,87,0.0,0.0,35,0.00,,---,0.00,VWS V14.00,2013-01-03 06:52:00,
2013-01-02 23:53:00,0.9,-20.4,17.72,East,87,0.0,0.0,35,0.00,,---,0.00,VWS V14.00,2013-01-03 06:53:00,
2013-01-02 23:57:00,0.9,-20.4,17.72,ESE,115,0.0,0.0,35,0.00,,---,0.00,VWS V14.00,2013-01-03 06:57:00,
2013-01-02 23:58:00,0.9,-20.4,17.72,ESE,118,0.0,0.0,35,0.00,,---,0.00,VWS V14.00,2013-01-03 06:58:00,